Multibeam Report for EX1704


Ship Name: Okeanos Explorer
Chief Scientist: Elizabeth Lobecker
NOAA/OAR/OER
Source Organization: NOAA Office of Ocean Exploration and Research (OER)
Start Date: 2017-04-04
End Date: 2017-04-21


View ISO Metadata

Visit the full NCEI Bathymetry Viewer


Multibeam Bathymetry

Cruise Details

Project: Telepresence Mapping: American Samoa/Cook Islands
Instrument: Kongsberg EM302

Data Quality

Number of Files: 1262
Number of Records: 383272
BATHYMETRY DATA Quantity Percentage
Number of Beams 165572640 100%
Number of Good Beams 148210824 89.51%
Number of Zero Beams 7860 0.0%
Number of Flagged Beams 17353956 10.48%

Navigation Totals

Total Time: 794.8951 hours
Total Track Length: 12871.2468 km
Average Speed: 16.192 km/hr (8.7430 knots)

Cruise Bounds

Northern Extent: -13.5888
Southern Extent: -16.454561
Western Extent: -171.95976
Eastern Extent: -165.37743

Limits

Minimum Sonar Depth 0 Maximum Sonar Depth 5.7292
Minimum Altitude 0 Maximum Altitude 5971.27
Minimum Depth 85.8276 Maximum Depth 6685.1382

File Information

Full Resolution Bathymetry as collected (raw): 599

Files File Size Description
0000_20170403_212548_EX1704_MB.all.mb58.gz 3.96MB Kongsberg multibeam vendor format
0001_20170403_212841_EX1704_MB.all.mb58.gz 83.62MB Kongsberg multibeam vendor format
0002_20170403_222840_EX1704_MB.all.mb58.gz 81.98MB Kongsberg multibeam vendor format
0003_20170403_232839_EX1704_MB.all.mb58.gz 72.21MB Kongsberg multibeam vendor format
0005_20170404_002837_EX1704_MB.all.mb58.gz 23.43MB Kongsberg multibeam vendor format
0006_20170404_004913_EX1704_MB.all.mb58.gz 80.94MB Kongsberg multibeam vendor format
0007_20170404_014907_EX1704_MB.all.mb58.gz 57.18MB Kongsberg multibeam vendor format
0008_20170404_023120_EX1704_MB.all.mb58.gz 73.57MB Kongsberg multibeam vendor format
0009_20170404_033123_EX1704_MB.all.mb58.gz 18.04MB Kongsberg multibeam vendor format
0010_20170404_034804_EX1704_MB.all.mb58.gz 5.09MB Kongsberg multibeam vendor format
0011_20170404_035234_EX1704_MB.all.mb58.gz 5.35MB Kongsberg multibeam vendor format
0012_20170404_035638_EX1704_MB.all.mb58.gz 6.37MB Kongsberg multibeam vendor format
0013_20170404_040211_EX1704_MB.all.mb58.gz 68.81MB Kongsberg multibeam vendor format
0014_20170404_050212_EX1704_MB.all.mb58.gz 63.77MB Kongsberg multibeam vendor format
0015_20170404_055905_EX1704_MB.all.mb58.gz 33.49MB Kongsberg multibeam vendor format
0016_20170404_063138_EX1704_MB.all.mb58.gz 65.72MB Kongsberg multibeam vendor format
0017_20170404_073133_EX1704_MB.all.mb58.gz 65.55MB Kongsberg multibeam vendor format
0018_20170404_083132_EX1704_MB.all.mb58.gz 66.89MB Kongsberg multibeam vendor format
0019_20170404_093132_EX1704_MB.all.mb58.gz 27.37MB Kongsberg multibeam vendor format
0020_20170404_095555_EX1704_MB.all.mb58.gz 67.81MB Kongsberg multibeam vendor format
0021_20170404_105552_EX1704_MB.all.mb58.gz 66.72MB Kongsberg multibeam vendor format
0022_20170404_115558_EX1704_MB.all.mb58.gz 19.61MB Kongsberg multibeam vendor format
0023_20170404_121327_EX1704_MB.all.mb58.gz 26.43MB Kongsberg multibeam vendor format
0024_20170404_123835_EX1704_MB.all.mb58.gz 65.96MB Kongsberg multibeam vendor format
0025_20170404_133835_EX1704_MB.all.mb58.gz 67.22MB Kongsberg multibeam vendor format
0026_20170404_143837_EX1704_MB.all.mb58.gz 46.30MB Kongsberg multibeam vendor format
0027_20170404_151957_EX1704_MB.all.mb58.gz 24.45MB Kongsberg multibeam vendor format
0028_20170404_154157_EX1704_MB.all.mb58.gz 67.19MB Kongsberg multibeam vendor format
0029_20170404_164157_EX1704_MB.all.mb58.gz 66.73MB Kongsberg multibeam vendor format
0030_20170404_174155_EX1704_MB.all.mb58.gz 12.81MB Kongsberg multibeam vendor format
0031_20170404_175327_EX1704_MB.all.mb58.gz 5.48MB Kongsberg multibeam vendor format
0032_20170404_175824_EX1704_MB.all.mb58.gz 66.44MB Kongsberg multibeam vendor format
0033_20170404_185825_EX1704_MB.all.mb58.gz 67.89MB Kongsberg multibeam vendor format
0034_20170404_195826_EX1704_MB.all.mb58.gz 64.23MB Kongsberg multibeam vendor format
0035_20170404_205019_EX1704_MB.all.mb58.gz 110.92MB Kongsberg multibeam vendor format
0036_20170404_215017_EX1704_MB.all.mb58.gz 84.59MB Kongsberg multibeam vendor format
0037_20170404_225018_EX1704_MB.all.mb58.gz 83.51MB Kongsberg multibeam vendor format
0038_20170404_235021_EX1704_MB.all.mb58.gz 106.16MB Kongsberg multibeam vendor format
0039_20170405_005017_EX1704_MB.all.mb58.gz 65.21MB Kongsberg multibeam vendor format
0040_20170405_012716_EX1704_MB.all.mb58.gz 15.81MB Kongsberg multibeam vendor format
0041_20170405_013834_EX1704_MB.all.mb58.gz 82.18MB Kongsberg multibeam vendor format
0042_20170405_023835_EX1704_MB.all.mb58.gz 80.96MB Kongsberg multibeam vendor format
0043_20170405_033841_EX1704_MB.all.mb58.gz 81.24MB Kongsberg multibeam vendor format
0044_20170405_043838_EX1704_MB.all.mb58.gz 85.10MB Kongsberg multibeam vendor format
0045_20170405_053837_EX1704_MB.all.mb58.gz 32.49MB Kongsberg multibeam vendor format
0046_20170405_055525_EX1704_MB.all.mb58.gz 36.65MB Kongsberg multibeam vendor format
0047_20170405_062042_EX1704_MB.all.mb58.gz 83.89MB Kongsberg multibeam vendor format
0048_20170405_072045_EX1704_MB.all.mb58.gz 81.54MB Kongsberg multibeam vendor format
0049_20170405_082044_EX1704_MB.all.mb58.gz 81.28MB Kongsberg multibeam vendor format
0050_20170405_092048_EX1704_MB.all.mb58.gz 81.12MB Kongsberg multibeam vendor format
0051_20170405_102043_EX1704_MB.all.mb58.gz 37.28MB Kongsberg multibeam vendor format
0052_20170405_104817_EX1704_MB.all.mb58.gz 25.21MB Kongsberg multibeam vendor format
0053_20170405_110754_EX1704_MB.all.mb58.gz 77.16MB Kongsberg multibeam vendor format
0054_20170405_120753_EX1704_MB.all.mb58.gz 79.05MB Kongsberg multibeam vendor format
0055_20170405_130752_EX1704_MB.all.mb58.gz 79.83MB Kongsberg multibeam vendor format
0056_20170405_140751_EX1704_MB.all.mb58.gz 81.49MB Kongsberg multibeam vendor format
0057_20170405_150755_EX1704_MB.all.mb58.gz 58.53MB Kongsberg multibeam vendor format
0058_20170405_155117_EX1704_MB.all.mb58.gz 76.48MB Kongsberg multibeam vendor format
0059_20170405_165122_EX1704_MB.all.mb58.gz 75.56MB Kongsberg multibeam vendor format
0060_20170405_175122_EX1704_MB.all.mb58.gz 3.71MB Kongsberg multibeam vendor format
0061_20170405_175403_EX1704_MB.all.mb58.gz 19.98MB Kongsberg multibeam vendor format
0062_20170405_180824_EX1704_MB.all.mb58.gz 86.29MB Kongsberg multibeam vendor format
0063_20170405_190824_EX1704_MB.all.mb58.gz 6.93MB Kongsberg multibeam vendor format
0064_20170405_191245_EX1704_MB.all.mb58.gz 26.72MB Kongsberg multibeam vendor format
0065_20170405_192634_EX1704_MB.all.mb58.gz 33.10MB Kongsberg multibeam vendor format
0066_20170405_194423_EX1704_MB.all.mb58.gz 35.17MB Kongsberg multibeam vendor format
0067_20170405_200655_EX1704_MB.all.mb58.gz 13.49MB Kongsberg multibeam vendor format
0068_20170405_201532_EX1704_MB.all.mb58.gz 65.13MB Kongsberg multibeam vendor format
0069_20170405_210307_EX1704_MB.all.mb58.gz 82.49MB Kongsberg multibeam vendor format
0070_20170405_220308_EX1704_MB.all.mb58.gz 14.50MB Kongsberg multibeam vendor format
0071_20170405_221310_EX1704_MB.all.mb58.gz 15.99MB Kongsberg multibeam vendor format
0072_20170405_222505_EX1704_MB.all.mb58.gz 15.94MB Kongsberg multibeam vendor format
0073_20170405_223701_EX1704_MB.all.mb58.gz 5.42MB Kongsberg multibeam vendor format
0074_20170405_224111_EX1704_MB.all.mb58.gz 79.28MB Kongsberg multibeam vendor format
0075_20170405_234113_EX1704_MB.all.mb58.gz 6.39MB Kongsberg multibeam vendor format
0076_20170405_234609_EX1704_MB.all.mb58.gz 22.57MB Kongsberg multibeam vendor format
0077_20170406_000330_EX1704_MB.all.mb58.gz 19.49MB Kongsberg multibeam vendor format
0078_20170406_001828_EX1704_MB.all.mb58.gz 10.41MB Kongsberg multibeam vendor format
0079_20170406_011124_EX1704_MB.all.mb58.gz 76.27MB Kongsberg multibeam vendor format
0080_20170406_021124_EX1704_MB.all.mb58.gz 53.63MB Kongsberg multibeam vendor format
0081_20170406_025149_EX1704_MB.all.mb58.gz 3.05MB Kongsberg multibeam vendor format
0082_20170406_025405_EX1704_MB.all.mb58.gz 24.46MB Kongsberg multibeam vendor format
0083_20170406_031240_EX1704_MB.all.mb58.gz 9.47MB Kongsberg multibeam vendor format
0084_20170406_032032_EX1704_MB.all.mb58.gz 77.49MB Kongsberg multibeam vendor format
0085_20170406_042032_EX1704_MB.all.mb58.gz 54.14MB Kongsberg multibeam vendor format
0086_20170406_050402_EX1704_MB.all.mb58.gz 5.31MB Kongsberg multibeam vendor format
0087_20170406_050847_EX1704_MB.all.mb58.gz 67.60MB Kongsberg multibeam vendor format
0088_20170406_060849_EX1704_MB.all.mb58.gz 66.71MB Kongsberg multibeam vendor format
0089_20170406_070844_EX1704_MB.all.mb58.gz 66.55MB Kongsberg multibeam vendor format
0090_20170406_080852_EX1704_MB.all.mb58.gz 66.82MB Kongsberg multibeam vendor format
0091_20170406_090845_EX1704_MB.all.mb58.gz 43.60MB Kongsberg multibeam vendor format
0092_20170406_094736_EX1704_MB.all.mb58.gz 69.57MB Kongsberg multibeam vendor format
0093_20170406_104743_EX1704_MB.all.mb58.gz 74.63MB Kongsberg multibeam vendor format
0094_20170406_114739_EX1704_MB.all.mb58.gz 67.03MB Kongsberg multibeam vendor format
0095_20170406_124740_EX1704_MB.all.mb58.gz 66.31MB Kongsberg multibeam vendor format
0096_20170406_134744_EX1704_MB.all.mb58.gz 66.15MB Kongsberg multibeam vendor format
0097_20170406_144743_EX1704_MB.all.mb58.gz 66.19MB Kongsberg multibeam vendor format
0098_20170406_154740_EX1704_MB.all.mb58.gz 66.10MB Kongsberg multibeam vendor format
0099_20170406_164742_EX1704_MB.all.mb58.gz 12.53MB Kongsberg multibeam vendor format
0100_20170406_165905_EX1704_MB.all.mb58.gz 23.78MB Kongsberg multibeam vendor format
0101_20170406_172041_EX1704_MB.all.mb58.gz 66.05MB Kongsberg multibeam vendor format
0102_20170406_182034_EX1704_MB.all.mb58.gz 65.87MB Kongsberg multibeam vendor format
0103_20170406_192038_EX1704_MB.all.mb58.gz 65.86MB Kongsberg multibeam vendor format
0104_20170406_202036_EX1704_MB.all.mb58.gz 65.86MB Kongsberg multibeam vendor format
0105_20170406_212033_EX1704_MB.all.mb58.gz 66.19MB Kongsberg multibeam vendor format
0106_20170406_222034_EX1704_MB.all.mb58.gz 67.06MB Kongsberg multibeam vendor format
0107_20170406_232040_EX1704_MB.all.mb58.gz 66.76MB Kongsberg multibeam vendor format
0108_20170407_002038_EX1704_MB.all.mb58.gz 8.40MB Kongsberg multibeam vendor format
0109_20170407_002810_EX1704_MB.all.mb58.gz 23.54MB Kongsberg multibeam vendor format
0110_20170407_004919_EX1704_MB.all.mb58.gz 66.37MB Kongsberg multibeam vendor format
0111_20170407_014916_EX1704_MB.all.mb58.gz 66.45MB Kongsberg multibeam vendor format
0112_20170407_024919_EX1704_MB.all.mb58.gz 65.91MB Kongsberg multibeam vendor format
0113_20170407_034916_EX1704_MB.all.mb58.gz 65.79MB Kongsberg multibeam vendor format
0114_20170407_044918_EX1704_MB.all.mb58.gz 65.69MB Kongsberg multibeam vendor format
0115_20170407_054910_EX1704_MB.all.mb58.gz 65.72MB Kongsberg multibeam vendor format
0116_20170407_064911_EX1704_MB.all.mb58.gz 64.93MB Kongsberg multibeam vendor format
0117_20170407_074823_EX1704_MB.all.mb58.gz 23.87MB Kongsberg multibeam vendor format
0118_20170407_081017_EX1704_MB.all.mb58.gz 65.58MB Kongsberg multibeam vendor format
0119_20170407_091018_EX1704_MB.all.mb58.gz 65.78MB Kongsberg multibeam vendor format
0120_20170407_101018_EX1704_MB.all.mb58.gz 65.63MB Kongsberg multibeam vendor format
0121_20170407_111014_EX1704_MB.all.mb58.gz 65.97MB Kongsberg multibeam vendor format
0122_20170407_121022_EX1704_MB.all.mb58.gz 65.95MB Kongsberg multibeam vendor format
0123_20170407_131021_EX1704_MB.all.mb58.gz 66.12MB Kongsberg multibeam vendor format
0124_20170407_141020_EX1704_MB.all.mb58.gz 49.54MB Kongsberg multibeam vendor format
0125_20170407_145510_EX1704_MB.all.mb58.gz 22.44MB Kongsberg multibeam vendor format
0126_20170407_151526_EX1704_MB.all.mb58.gz 65.88MB Kongsberg multibeam vendor format
0127_20170407_161526_EX1704_MB.all.mb58.gz 65.87MB Kongsberg multibeam vendor format
0128_20170407_171528_EX1704_MB.all.mb58.gz 66.09MB Kongsberg multibeam vendor format
0129_20170407_181533_EX1704_MB.all.mb58.gz 66.35MB Kongsberg multibeam vendor format
0130_20170407_191530_EX1704_MB.all.mb58.gz 65.92MB Kongsberg multibeam vendor format
0131_20170407_201526_EX1704_MB.all.mb58.gz 65.57MB Kongsberg multibeam vendor format
0132_20170407_211524_EX1704_MB.all.mb58.gz 45.30MB Kongsberg multibeam vendor format
0133_20170407_215636_EX1704_MB.all.mb58.gz 24.76MB Kongsberg multibeam vendor format
0134_20170407_221910_EX1704_MB.all.mb58.gz 65.74MB Kongsberg multibeam vendor format
0135_20170407_231911_EX1704_MB.all.mb58.gz 65.76MB Kongsberg multibeam vendor format
0136_20170408_001911_EX1704_MB.all.mb58.gz 48.50MB Kongsberg multibeam vendor format
0137_20170408_010322_EX1704_MB.all.mb58.gz 65.87MB Kongsberg multibeam vendor format
0138_20170408_020330_EX1704_MB.all.mb58.gz 65.84MB Kongsberg multibeam vendor format
0139_20170408_030325_EX1704_MB.all.mb58.gz 65.61MB Kongsberg multibeam vendor format
0140_20170408_040322_EX1704_MB.all.mb58.gz 66.01MB Kongsberg multibeam vendor format
0141_20170408_050329_EX1704_MB.all.mb58.gz 7.37MB Kongsberg multibeam vendor format
0142_20170408_051012_EX1704_MB.all.mb58.gz 27.59MB Kongsberg multibeam vendor format
0143_20170408_053519_EX1704_MB.all.mb58.gz 65.93MB Kongsberg multibeam vendor format
0144_20170408_063517_EX1704_MB.all.mb58.gz 65.94MB Kongsberg multibeam vendor format
0145_20170408_073514_EX1704_MB.all.mb58.gz 65.78MB Kongsberg multibeam vendor format
0146_20170408_083513_EX1704_MB.all.mb58.gz 65.75MB Kongsberg multibeam vendor format
0147_20170408_093514_EX1704_MB.all.mb58.gz 65.88MB Kongsberg multibeam vendor format
0148_20170408_103518_EX1704_MB.all.mb58.gz 65.84MB Kongsberg multibeam vendor format
0149_20170408_113520_EX1704_MB.all.mb58.gz 35.41MB Kongsberg multibeam vendor format
0150_20170408_120737_EX1704_MB.all.mb58.gz 31.68MB Kongsberg multibeam vendor format
0151_20170408_123629_EX1704_MB.all.mb58.gz 65.79MB Kongsberg multibeam vendor format
0152_20170408_133626_EX1704_MB.all.mb58.gz 65.84MB Kongsberg multibeam vendor format
0153_20170408_143629_EX1704_MB.all.mb58.gz 65.83MB Kongsberg multibeam vendor format
0154_20170408_153633_EX1704_MB.all.mb58.gz 65.79MB Kongsberg multibeam vendor format
0155_20170408_163631_EX1704_MB.all.mb58.gz 7.40MB Kongsberg multibeam vendor format
0156_20170408_164315_EX1704_MB.all.mb58.gz 65.75MB Kongsberg multibeam vendor format
0157_20170408_174313_EX1704_MB.all.mb58.gz 54.51MB Kongsberg multibeam vendor format
0158_20170408_183255_EX1704_MB.all.mb58.gz 4.46MB Kongsberg multibeam vendor format
0159_20170408_183658_EX1704_MB.all.mb58.gz 26.18MB Kongsberg multibeam vendor format
0160_20170408_190051_EX1704_MB.all.mb58.gz 5.65MB Kongsberg multibeam vendor format
0161_20170408_190600_EX1704_MB.all.mb58.gz 65.71MB Kongsberg multibeam vendor format
0162_20170408_200559_EX1704_MB.all.mb58.gz 65.84MB Kongsberg multibeam vendor format
0163_20170408_210602_EX1704_MB.all.mb58.gz 65.92MB Kongsberg multibeam vendor format
0164_20170408_220605_EX1704_MB.all.mb58.gz 65.82MB Kongsberg multibeam vendor format
0165_20170408_230605_EX1704_MB.all.mb58.gz 65.84MB Kongsberg multibeam vendor format
0166_20170409_000604_EX1704_MB.all.mb58.gz 6.81MB Kongsberg multibeam vendor format
0167_20170409_001217_EX1704_MB.all.mb58.gz 17.57MB Kongsberg multibeam vendor format
0168_20170409_002820_EX1704_MB.all.mb58.gz 34.62MB Kongsberg multibeam vendor format
0169_20170409_005953_EX1704_MB.all.mb58.gz 65.82MB Kongsberg multibeam vendor format
0170_20170409_015952_EX1704_MB.all.mb58.gz 65.84MB Kongsberg multibeam vendor format
0171_20170409_025953_EX1704_MB.all.mb58.gz 65.78MB Kongsberg multibeam vendor format
0172_20170409_035954_EX1704_MB.all.mb58.gz 65.33MB Kongsberg multibeam vendor format
0173_20170409_045951_EX1704_MB.all.mb58.gz 0.92MB Kongsberg multibeam vendor format
0174_20170409_050042_EX1704_MB.all.mb58.gz 6.89MB Kongsberg multibeam vendor format
0175_20170409_050700_EX1704_MB.all.mb58.gz 40.96MB Kongsberg multibeam vendor format
0176_20170409_054436_EX1704_MB.all.mb58.gz 65.44MB Kongsberg multibeam vendor format
0177_20170409_064435_EX1704_MB.all.mb58.gz 65.61MB Kongsberg multibeam vendor format
0178_20170409_074441_EX1704_MB.all.mb58.gz 39.05MB Kongsberg multibeam vendor format
0179_20170409_082030_EX1704_MB.all.mb58.gz 9.06MB Kongsberg multibeam vendor format
0180_20170409_082848_EX1704_MB.all.mb58.gz 65.79MB Kongsberg multibeam vendor format
0181_20170409_092850_EX1704_MB.all.mb58.gz 65.98MB Kongsberg multibeam vendor format
0182_20170409_102845_EX1704_MB.all.mb58.gz 66.40MB Kongsberg multibeam vendor format
0183_20170409_112844_EX1704_MB.all.mb58.gz 66.69MB Kongsberg multibeam vendor format
0184_20170409_122850_EX1704_MB.all.mb58.gz 4.03MB Kongsberg multibeam vendor format
0185_20170409_123226_EX1704_MB.all.mb58.gz 10.89MB Kongsberg multibeam vendor format
0186_20170409_124210_EX1704_MB.all.mb58.gz 66.85MB Kongsberg multibeam vendor format
0187_20170409_134216_EX1704_MB.all.mb58.gz 21.20MB Kongsberg multibeam vendor format
0188_20170409_140120_EX1704_MB.all.mb58.gz 3.59MB Kongsberg multibeam vendor format
0189_20170409_140435_EX1704_MB.all.mb58.gz 67.23MB Kongsberg multibeam vendor format
0190_20170409_150434_EX1704_MB.all.mb58.gz 32.34MB Kongsberg multibeam vendor format
0191_20170409_153317_EX1704_MB.all.mb58.gz 61.90MB Kongsberg multibeam vendor format
0192_20170409_162131_EX1704_MB.all.mb58.gz 19.90MB Kongsberg multibeam vendor format
0193_20170409_163615_EX1704_MB.all.mb58.gz 7.73MB Kongsberg multibeam vendor format
0194_20170409_164159_EX1704_MB.all.mb58.gz 58.71MB Kongsberg multibeam vendor format
0195_20170409_172807_EX1704_MB.all.mb58.gz 21.11MB Kongsberg multibeam vendor format
0196_20170409_174655_EX1704_MB.all.mb58.gz 59.97MB Kongsberg multibeam vendor format
0197_20170409_183648_EX1704_MB.all.mb58.gz 25.79MB Kongsberg multibeam vendor format
0198_20170409_185610_EX1704_MB.all.mb58.gz 3.22MB Kongsberg multibeam vendor format
0199_20170409_185839_EX1704_MB.all.mb58.gz 55.57MB Kongsberg multibeam vendor format
0200_20170409_194434_EX1704_MB.all.mb58.gz 2.99MB Kongsberg multibeam vendor format
0201_20170409_194714_EX1704_MB.all.mb58.gz 67.33MB Kongsberg multibeam vendor format
0202_20170409_204718_EX1704_MB.all.mb58.gz 25.70MB Kongsberg multibeam vendor format
0203_20170409_211015_EX1704_MB.all.mb58.gz 7.03MB Kongsberg multibeam vendor format
0204_20170409_211629_EX1704_MB.all.mb58.gz 73.35MB Kongsberg multibeam vendor format
0205_20170409_221631_EX1704_MB.all.mb58.gz 32.55MB Kongsberg multibeam vendor format
0206_20170409_224048_EX1704_MB.all.mb58.gz 4.59MB Kongsberg multibeam vendor format
0207_20170409_224410_EX1704_MB.all.mb58.gz 15.58MB Kongsberg multibeam vendor format
0208_20170409_225558_EX1704_MB.all.mb58.gz 55.73MB Kongsberg multibeam vendor format
0209_20170409_233716_EX1704_MB.all.mb58.gz 28.57MB Kongsberg multibeam vendor format
0210_20170409_235808_EX1704_MB.all.mb58.gz 3.83MB Kongsberg multibeam vendor format
0211_20170410_000056_EX1704_MB.all.mb58.gz 18.34MB Kongsberg multibeam vendor format
0212_20170410_032108_EX1704_MB.all.mb58.gz 73.17MB Kongsberg multibeam vendor format
0213_20170410_041816_EX1704_MB.all.mb58.gz 1.92MB Kongsberg multibeam vendor format
0214_20170410_042111_EX1704_MB.all.mb58.gz 66.23MB Kongsberg multibeam vendor format
0215_20170410_052020_EX1704_MB.all.mb58.gz 66.98MB Kongsberg multibeam vendor format
0216_20170410_062020_EX1704_MB.all.mb58.gz 66.68MB Kongsberg multibeam vendor format
0217_20170410_072019_EX1704_MB.all.mb58.gz 66.43MB Kongsberg multibeam vendor format
0218_20170410_082023_EX1704_MB.all.mb58.gz 65.89MB Kongsberg multibeam vendor format
0219_20170410_092026_EX1704_MB.all.mb58.gz 35.48MB Kongsberg multibeam vendor format
0220_20170410_095246_EX1704_MB.all.mb58.gz 3.36MB Kongsberg multibeam vendor format
0221_20170410_095549_EX1704_MB.all.mb58.gz 65.83MB Kongsberg multibeam vendor format
0222_20170410_105548_EX1704_MB.all.mb58.gz 20.35MB Kongsberg multibeam vendor format
0223_20170410_111421_EX1704_MB.all.mb58.gz 8.52MB Kongsberg multibeam vendor format
0224_20170410_112205_EX1704_MB.all.mb58.gz 1.78MB Kongsberg multibeam vendor format
0225_20170410_112342_EX1704_MB.all.mb58.gz 65.73MB Kongsberg multibeam vendor format
0226_20170410_122342_EX1704_MB.all.mb58.gz 65.80MB Kongsberg multibeam vendor format
0227_20170410_132338_EX1704_MB.all.mb58.gz 2.65MB Kongsberg multibeam vendor format
0228_20170410_132602_EX1704_MB.all.mb58.gz 22.35MB Kongsberg multibeam vendor format
0229_20170410_134616_EX1704_MB.all.mb58.gz 65.86MB Kongsberg multibeam vendor format
0230_20170410_144617_EX1704_MB.all.mb58.gz 65.46MB Kongsberg multibeam vendor format
0231_20170410_154624_EX1704_MB.all.mb58.gz 6.59MB Kongsberg multibeam vendor format
0232_20170410_155227_EX1704_MB.all.mb58.gz 18.05MB Kongsberg multibeam vendor format
0233_20170410_160903_EX1704_MB.all.mb58.gz 3.41MB Kongsberg multibeam vendor format
0234_20170410_161210_EX1704_MB.all.mb58.gz 35.02MB Kongsberg multibeam vendor format
0235_20170410_164412_EX1704_MB.all.mb58.gz 65.76MB Kongsberg multibeam vendor format
0236_20170410_174406_EX1704_MB.all.mb58.gz 12.87MB Kongsberg multibeam vendor format
0237_20170410_175549_EX1704_MB.all.mb58.gz 19.62MB Kongsberg multibeam vendor format
0238_20170410_181342_EX1704_MB.all.mb58.gz 2.61MB Kongsberg multibeam vendor format
0239_20170410_181604_EX1704_MB.all.mb58.gz 66.26MB Kongsberg multibeam vendor format
0240_20170410_191610_EX1704_MB.all.mb58.gz 19.22MB Kongsberg multibeam vendor format
0241_20170410_193338_EX1704_MB.all.mb58.gz 6.18MB Kongsberg multibeam vendor format
0242_20170410_193847_EX1704_MB.all.mb58.gz 33.61MB Kongsberg multibeam vendor format
0243_20170410_200432_EX1704_MB.all.mb58.gz 66.69MB Kongsberg multibeam vendor format
0244_20170410_210329_EX1704_MB.all.mb58.gz 3.19MB Kongsberg multibeam vendor format
0245_20170410_210621_EX1704_MB.all.mb58.gz 31.69MB Kongsberg multibeam vendor format
0246_20170410_213408_EX1704_MB.all.mb58.gz 4.46MB Kongsberg multibeam vendor format
0247_20170410_213807_EX1704_MB.all.mb58.gz 67.41MB Kongsberg multibeam vendor format
0248_20170410_223805_EX1704_MB.all.mb58.gz 11.68MB Kongsberg multibeam vendor format
0249_20170410_224707_EX1704_MB.all.mb58.gz 22.35MB Kongsberg multibeam vendor format
0250_20170410_230431_EX1704_MB.all.mb58.gz 66.47MB Kongsberg multibeam vendor format
0251_20170411_000436_EX1704_MB.all.mb58.gz 69.99MB Kongsberg multibeam vendor format
0252_20170411_010438_EX1704_MB.all.mb58.gz 4.42MB Kongsberg multibeam vendor format
0253_20170411_010756_EX1704_MB.all.mb58.gz 80.30MB Kongsberg multibeam vendor format
0254_20170411_020759_EX1704_MB.all.mb58.gz 81.79MB Kongsberg multibeam vendor format
0255_20170411_030754_EX1704_MB.all.mb58.gz 88.16MB Kongsberg multibeam vendor format
0256_20170411_040754_EX1704_MB.all.mb58.gz 10.07MB Kongsberg multibeam vendor format
0257_20170411_041403_EX1704_MB.all.mb58.gz 30.81MB Kongsberg multibeam vendor format
0258_20170411_043611_EX1704_MB.all.mb58.gz 79.90MB Kongsberg multibeam vendor format
0259_20170411_053611_EX1704_MB.all.mb58.gz 80.41MB Kongsberg multibeam vendor format
0260_20170411_063617_EX1704_MB.all.mb58.gz 73.51MB Kongsberg multibeam vendor format
0261_20170411_073610_EX1704_MB.all.mb58.gz 66.87MB Kongsberg multibeam vendor format
0262_20170411_083616_EX1704_MB.all.mb58.gz 65.77MB Kongsberg multibeam vendor format
0263_20170411_093610_EX1704_MB.all.mb58.gz 65.85MB Kongsberg multibeam vendor format
0264_20170411_103615_EX1704_MB.all.mb58.gz 59.32MB Kongsberg multibeam vendor format
0265_20170411_113029_EX1704_MB.all.mb58.gz 24.48MB Kongsberg multibeam vendor format
0266_20170411_115256_EX1704_MB.all.mb58.gz 65.52MB Kongsberg multibeam vendor format
0267_20170411_125252_EX1704_MB.all.mb58.gz 65.74MB Kongsberg multibeam vendor format
0268_20170411_135256_EX1704_MB.all.mb58.gz 65.71MB Kongsberg multibeam vendor format
0269_20170411_145249_EX1704_MB.all.mb58.gz 66.37MB Kongsberg multibeam vendor format
0270_20170411_155256_EX1704_MB.all.mb58.gz 67.21MB Kongsberg multibeam vendor format
0271_20170411_165251_EX1704_MB.all.mb58.gz 8.48MB Kongsberg multibeam vendor format
0272_20170411_170022_EX1704_MB.all.mb58.gz 76.99MB Kongsberg multibeam vendor format
0273_20170411_180018_EX1704_MB.all.mb58.gz 48.81MB Kongsberg multibeam vendor format
0274_20170411_184359_EX1704_MB.all.mb58.gz 4.27MB Kongsberg multibeam vendor format
0275_20170411_184750_EX1704_MB.all.mb58.gz 20.13MB Kongsberg multibeam vendor format
0276_20170411_190602_EX1704_MB.all.mb58.gz 5.19MB Kongsberg multibeam vendor format
0277_20170411_191044_EX1704_MB.all.mb58.gz 67.10MB Kongsberg multibeam vendor format
0278_20170411_201045_EX1704_MB.all.mb58.gz 67.26MB Kongsberg multibeam vendor format
0279_20170411_211051_EX1704_MB.all.mb58.gz 66.59MB Kongsberg multibeam vendor format
0280_20170411_221050_EX1704_MB.all.mb58.gz 66.33MB Kongsberg multibeam vendor format
0281_20170411_231050_EX1704_MB.all.mb58.gz 66.01MB Kongsberg multibeam vendor format
0282_20170412_001045_EX1704_MB.all.mb58.gz 4.31MB Kongsberg multibeam vendor format
0283_20170412_001441_EX1704_MB.all.mb58.gz 65.37MB Kongsberg multibeam vendor format
0284_20170412_011440_EX1704_MB.all.mb58.gz 46.55MB Kongsberg multibeam vendor format
0285_20170412_015709_EX1704_MB.all.mb58.gz 25.36MB Kongsberg multibeam vendor format
0286_20170412_022018_EX1704_MB.all.mb58.gz 65.49MB Kongsberg multibeam vendor format
0287_20170412_032017_EX1704_MB.all.mb58.gz 65.74MB Kongsberg multibeam vendor format
0288_20170412_042021_EX1704_MB.all.mb58.gz 65.71MB Kongsberg multibeam vendor format
0289_20170412_052019_EX1704_MB.all.mb58.gz 66.15MB Kongsberg multibeam vendor format
0290_20170412_062021_EX1704_MB.all.mb58.gz 66.35MB Kongsberg multibeam vendor format
0291_20170412_072019_EX1704_MB.all.mb58.gz 66.86MB Kongsberg multibeam vendor format
0292_20170412_082021_EX1704_MB.all.mb58.gz 66.64MB Kongsberg multibeam vendor format
0293_20170412_092018_EX1704_MB.all.mb58.gz 15.63MB Kongsberg multibeam vendor format
0294_20170412_093428_EX1704_MB.all.mb58.gz 27.46MB Kongsberg multibeam vendor format
0295_20170412_095923_EX1704_MB.all.mb58.gz 66.34MB Kongsberg multibeam vendor format
0296_20170412_105926_EX1704_MB.all.mb58.gz 66.54MB Kongsberg multibeam vendor format
0297_20170412_115925_EX1704_MB.all.mb58.gz 66.42MB Kongsberg multibeam vendor format
0298_20170412_125923_EX1704_MB.all.mb58.gz 66.24MB Kongsberg multibeam vendor format
0299_20170412_135928_EX1704_MB.all.mb58.gz 65.80MB Kongsberg multibeam vendor format
0300_20170412_145931_EX1704_MB.all.mb58.gz 22.14MB Kongsberg multibeam vendor format
0301_20170412_151948_EX1704_MB.all.mb58.gz 23.06MB Kongsberg multibeam vendor format
0302_20170412_154055_EX1704_MB.all.mb58.gz 65.78MB Kongsberg multibeam vendor format
0303_20170412_164058_EX1704_MB.all.mb58.gz 6.01MB Kongsberg multibeam vendor format
0304_20170412_164621_EX1704_MB.all.mb58.gz 66.33MB Kongsberg multibeam vendor format
0305_20170412_174622_EX1704_MB.all.mb58.gz 66.50MB Kongsberg multibeam vendor format
0306_20170412_184622_EX1704_MB.all.mb58.gz 66.27MB Kongsberg multibeam vendor format
0307_20170412_194620_EX1704_MB.all.mb58.gz 66.39MB Kongsberg multibeam vendor format
0308_20170412_204622_EX1704_MB.all.mb58.gz 9.00MB Kongsberg multibeam vendor format
0309_20170412_205431_EX1704_MB.all.mb58.gz 19.26MB Kongsberg multibeam vendor format
0310_20170412_211156_EX1704_MB.all.mb58.gz 5.53MB Kongsberg multibeam vendor format
0311_20170412_211655_EX1704_MB.all.mb58.gz 66.39MB Kongsberg multibeam vendor format
0312_20170412_221653_EX1704_MB.all.mb58.gz 66.27MB Kongsberg multibeam vendor format
0313_20170412_231656_EX1704_MB.all.mb58.gz 66.13MB Kongsberg multibeam vendor format
0314_20170413_001650_EX1704_MB.all.mb58.gz 66.44MB Kongsberg multibeam vendor format
0315_20170413_011651_EX1704_MB.all.mb58.gz 60.38MB Kongsberg multibeam vendor format
0316_20170413_021207_EX1704_MB.all.mb58.gz 23.87MB Kongsberg multibeam vendor format
0317_20170413_023359_EX1704_MB.all.mb58.gz 65.85MB Kongsberg multibeam vendor format
0318_20170413_033355_EX1704_MB.all.mb58.gz 66.06MB Kongsberg multibeam vendor format
0319_20170413_043351_EX1704_MB.all.mb58.gz 66.14MB Kongsberg multibeam vendor format
0320_20170413_053359_EX1704_MB.all.mb58.gz 65.93MB Kongsberg multibeam vendor format
0321_20170413_063353_EX1704_MB.all.mb58.gz 54.48MB Kongsberg multibeam vendor format
0322_20170413_072329_EX1704_MB.all.mb58.gz 29.11MB Kongsberg multibeam vendor format
0323_20170413_075000_EX1704_MB.all.mb58.gz 65.89MB Kongsberg multibeam vendor format
0324_20170413_084959_EX1704_MB.all.mb58.gz 66.17MB Kongsberg multibeam vendor format
0325_20170413_094959_EX1704_MB.all.mb58.gz 66.50MB Kongsberg multibeam vendor format
0326_20170413_105000_EX1704_MB.all.mb58.gz 66.40MB Kongsberg multibeam vendor format
0327_20170413_114957_EX1704_MB.all.mb58.gz 16.57MB Kongsberg multibeam vendor format
0328_20170413_120459_EX1704_MB.all.mb58.gz 66.10MB Kongsberg multibeam vendor format
0329_20170413_130455_EX1704_MB.all.mb58.gz 11.86MB Kongsberg multibeam vendor format
0330_20170413_131539_EX1704_MB.all.mb58.gz 7.63MB Kongsberg multibeam vendor format
0331_20170413_132233_EX1704_MB.all.mb58.gz 37.41MB Kongsberg multibeam vendor format
0332_20170413_135632_EX1704_MB.all.mb58.gz 23.09MB Kongsberg multibeam vendor format
0333_20170413_141727_EX1704_MB.all.mb58.gz 66.04MB Kongsberg multibeam vendor format
0334_20170413_151726_EX1704_MB.all.mb58.gz 11.51MB Kongsberg multibeam vendor format
0335_20170413_152751_EX1704_MB.all.mb58.gz 45.53MB Kongsberg multibeam vendor format
0336_20170413_160917_EX1704_MB.all.mb58.gz 7.80MB Kongsberg multibeam vendor format
0337_20170413_161621_EX1704_MB.all.mb58.gz 22.08MB Kongsberg multibeam vendor format
0338_20170413_163627_EX1704_MB.all.mb58.gz 65.98MB Kongsberg multibeam vendor format
0339_20170413_173622_EX1704_MB.all.mb58.gz 27.34MB Kongsberg multibeam vendor format
0340_20170413_180117_EX1704_MB.all.mb58.gz 64.99MB Kongsberg multibeam vendor format
0341_20170413_190129_EX1704_MB.all.mb58.gz 41.27MB Kongsberg multibeam vendor format
0342_20170413_193937_EX1704_MB.all.mb58.gz 32.77MB Kongsberg multibeam vendor format
0343_20170413_201123_EX1704_MB.all.mb58.gz 19.21MB Kongsberg multibeam vendor format
0344_20170413_202642_EX1704_MB.all.mb58.gz 14.84MB Kongsberg multibeam vendor format
0345_20170413_204011_EX1704_MB.all.mb58.gz 63.68MB Kongsberg multibeam vendor format
0346_20170413_212825_EX1704_MB.all.mb58.gz 14.62MB Kongsberg multibeam vendor format
0347_20170413_213933_EX1704_MB.all.mb58.gz 5.47MB Kongsberg multibeam vendor format
0348_20170413_214404_EX1704_MB.all.mb58.gz 47.42MB Kongsberg multibeam vendor format
0349_20170413_222202_EX1704_MB.all.mb58.gz 5.80MB Kongsberg multibeam vendor format
0350_20170413_222642_EX1704_MB.all.mb58.gz 50.98MB Kongsberg multibeam vendor format
0351_20170413_231232_EX1704_MB.all.mb58.gz 3.13MB Kongsberg multibeam vendor format
0352_20170413_231522_EX1704_MB.all.mb58.gz 26.13MB Kongsberg multibeam vendor format
0353_20170413_233916_EX1704_MB.all.mb58.gz 66.11MB Kongsberg multibeam vendor format
0354_20170414_003921_EX1704_MB.all.mb58.gz 7.00MB Kongsberg multibeam vendor format
0355_20170414_004542_EX1704_MB.all.mb58.gz 4.49MB Kongsberg multibeam vendor format
0356_20170414_004946_EX1704_MB.all.mb58.gz 66.10MB Kongsberg multibeam vendor format
0357_20170414_014948_EX1704_MB.all.mb58.gz 65.65MB Kongsberg multibeam vendor format
0358_20170414_024946_EX1704_MB.all.mb58.gz 15.90MB Kongsberg multibeam vendor format
0359_20170414_030417_EX1704_MB.all.mb58.gz 26.63MB Kongsberg multibeam vendor format
0360_20170414_032841_EX1704_MB.all.mb58.gz 65.61MB Kongsberg multibeam vendor format
0361_20170414_042836_EX1704_MB.all.mb58.gz 66.29MB Kongsberg multibeam vendor format
0362_20170414_052839_EX1704_MB.all.mb58.gz 12.28MB Kongsberg multibeam vendor format
0363_20170414_053949_EX1704_MB.all.mb58.gz 25.43MB Kongsberg multibeam vendor format
0364_20170414_060256_EX1704_MB.all.mb58.gz 66.51MB Kongsberg multibeam vendor format
0365_20170414_070258_EX1704_MB.all.mb58.gz 66.03MB Kongsberg multibeam vendor format
0366_20170414_080253_EX1704_MB.all.mb58.gz 13.64MB Kongsberg multibeam vendor format
0367_20170414_081514_EX1704_MB.all.mb58.gz 52.78MB Kongsberg multibeam vendor format
0368_20170414_090316_EX1704_MB.all.mb58.gz 66.69MB Kongsberg multibeam vendor format
0369_20170414_100320_EX1704_MB.all.mb58.gz 66.35MB Kongsberg multibeam vendor format
0370_20170414_110323_EX1704_MB.all.mb58.gz 23.34MB Kongsberg multibeam vendor format
0371_20170414_112430_EX1704_MB.all.mb58.gz 3.01MB Kongsberg multibeam vendor format
0372_20170414_112714_EX1704_MB.all.mb58.gz 18.53MB Kongsberg multibeam vendor format
0373_20170414_114403_EX1704_MB.all.mb58.gz 66.05MB Kongsberg multibeam vendor format
0374_20170414_124400_EX1704_MB.all.mb58.gz 65.69MB Kongsberg multibeam vendor format
0375_20170414_134356_EX1704_MB.all.mb58.gz 30.59MB Kongsberg multibeam vendor format
0376_20170414_141152_EX1704_MB.all.mb58.gz 35.04MB Kongsberg multibeam vendor format
0377_20170414_144345_EX1704_MB.all.mb58.gz 7.16MB Kongsberg multibeam vendor format
0378_20170414_145014_EX1704_MB.all.mb58.gz 66.19MB Kongsberg multibeam vendor format
0379_20170414_155017_EX1704_MB.all.mb58.gz 52.34MB Kongsberg multibeam vendor format
0380_20170414_163746_EX1704_MB.all.mb58.gz 65.98MB Kongsberg multibeam vendor format
0381_20170414_173740_EX1704_MB.all.mb58.gz 19.11MB Kongsberg multibeam vendor format
0382_20170414_175500_EX1704_MB.all.mb58.gz 15.82MB Kongsberg multibeam vendor format
0383_20170414_180922_EX1704_MB.all.mb58.gz 3.08MB Kongsberg multibeam vendor format
0384_20170414_181209_EX1704_MB.all.mb58.gz 64.81MB Kongsberg multibeam vendor format
0385_20170414_191057_EX1704_MB.all.mb58.gz 65.97MB Kongsberg multibeam vendor format
0386_20170414_201049_EX1704_MB.all.mb58.gz 66.24MB Kongsberg multibeam vendor format
0387_20170414_211057_EX1704_MB.all.mb58.gz 19.04MB Kongsberg multibeam vendor format
0388_20170414_212813_EX1704_MB.all.mb58.gz 24.71MB Kongsberg multibeam vendor format
0389_20170414_215050_EX1704_MB.all.mb58.gz 42.12MB Kongsberg multibeam vendor format
0390_20170414_222918_EX1704_MB.all.mb58.gz 36.33MB Kongsberg multibeam vendor format
0391_20170414_230231_EX1704_MB.all.mb58.gz 65.68MB Kongsberg multibeam vendor format
0392_20170415_000234_EX1704_MB.all.mb58.gz 65.47MB Kongsberg multibeam vendor format
0393_20170415_010227_EX1704_MB.all.mb58.gz 18.58MB Kongsberg multibeam vendor format
0394_20170415_011925_EX1704_MB.all.mb58.gz 65.64MB Kongsberg multibeam vendor format
0395_20170415_021919_EX1704_MB.all.mb58.gz 65.81MB Kongsberg multibeam vendor format
0396_20170415_031924_EX1704_MB.all.mb58.gz 65.56MB Kongsberg multibeam vendor format
0397_20170415_041919_EX1704_MB.all.mb58.gz 63.98MB Kongsberg multibeam vendor format
0398_20170415_051803_EX1704_MB.all.mb58.gz 22.55MB Kongsberg multibeam vendor format
0399_20170415_053842_EX1704_MB.all.mb58.gz 65.38MB Kongsberg multibeam vendor format
0400_20170415_063834_EX1704_MB.all.mb58.gz 65.62MB Kongsberg multibeam vendor format
0401_20170415_073835_EX1704_MB.all.mb58.gz 32.16MB Kongsberg multibeam vendor format
0402_20170415_080800_EX1704_MB.all.mb58.gz 28.14MB Kongsberg multibeam vendor format
0403_20170415_083343_EX1704_MB.all.mb58.gz 65.75MB Kongsberg multibeam vendor format
0404_20170415_093342_EX1704_MB.all.mb58.gz 65.73MB Kongsberg multibeam vendor format
0405_20170415_103339_EX1704_MB.all.mb58.gz 35.02MB Kongsberg multibeam vendor format
0406_20170415_110535_EX1704_MB.all.mb58.gz 24.23MB Kongsberg multibeam vendor format
0407_20170415_112744_EX1704_MB.all.mb58.gz 65.77MB Kongsberg multibeam vendor format
0408_20170415_122747_EX1704_MB.all.mb58.gz 65.61MB Kongsberg multibeam vendor format
0409_20170415_132746_EX1704_MB.all.mb58.gz 31.66MB Kongsberg multibeam vendor format
0410_20170415_135640_EX1704_MB.all.mb58.gz 3.31MB Kongsberg multibeam vendor format
0411_20170415_135940_EX1704_MB.all.mb58.gz 65.62MB Kongsberg multibeam vendor format
0412_20170415_145936_EX1704_MB.all.mb58.gz 65.78MB Kongsberg multibeam vendor format
0413_20170415_155940_EX1704_MB.all.mb58.gz 43.79MB Kongsberg multibeam vendor format
0414_20170415_163938_EX1704_MB.all.mb58.gz 65.62MB Kongsberg multibeam vendor format
0415_20170415_173929_EX1704_MB.all.mb58.gz 65.70MB Kongsberg multibeam vendor format
0416_20170415_183925_EX1704_MB.all.mb58.gz 65.73MB Kongsberg multibeam vendor format
0417_20170415_193922_EX1704_MB.all.mb58.gz 63.43MB Kongsberg multibeam vendor format
0418_20170415_203722_EX1704_MB.all.mb58.gz 2.62MB Kongsberg multibeam vendor format
0419_20170415_203945_EX1704_MB.all.mb58.gz 26.54MB Kongsberg multibeam vendor format
0420_20170415_210356_EX1704_MB.all.mb58.gz 65.73MB Kongsberg multibeam vendor format
0421_20170415_220402_EX1704_MB.all.mb58.gz 54.39MB Kongsberg multibeam vendor format
0422_20170415_225351_EX1704_MB.all.mb58.gz 4.70MB Kongsberg multibeam vendor format
0423_20170415_225808_EX1704_MB.all.mb58.gz 65.72MB Kongsberg multibeam vendor format
0424_20170415_235815_EX1704_MB.all.mb58.gz 4.55MB Kongsberg multibeam vendor format
0425_20170416_000223_EX1704_MB.all.mb58.gz 65.52MB Kongsberg multibeam vendor format
0426_20170416_010222_EX1704_MB.all.mb58.gz 65.33MB Kongsberg multibeam vendor format
0427_20170416_020219_EX1704_MB.all.mb58.gz 9.62MB Kongsberg multibeam vendor format
0428_20170416_021109_EX1704_MB.all.mb58.gz 65.36MB Kongsberg multibeam vendor format
0429_20170416_031101_EX1704_MB.all.mb58.gz 65.53MB Kongsberg multibeam vendor format
0430_20170416_041103_EX1704_MB.all.mb58.gz 65.60MB Kongsberg multibeam vendor format
0431_20170416_051108_EX1704_MB.all.mb58.gz 65.51MB Kongsberg multibeam vendor format
0432_20170416_061107_EX1704_MB.all.mb58.gz 65.43MB Kongsberg multibeam vendor format
0433_20170416_071103_EX1704_MB.all.mb58.gz 3.32MB Kongsberg multibeam vendor format
0434_20170416_071406_EX1704_MB.all.mb58.gz 64.84MB Kongsberg multibeam vendor format
0435_20170416_081405_EX1704_MB.all.mb58.gz 65.26MB Kongsberg multibeam vendor format
0436_20170416_091405_EX1704_MB.all.mb58.gz 65.76MB Kongsberg multibeam vendor format
0437_20170416_101406_EX1704_MB.all.mb58.gz 65.53MB Kongsberg multibeam vendor format
0438_20170416_111406_EX1704_MB.all.mb58.gz 65.77MB Kongsberg multibeam vendor format
0439_20170416_121407_EX1704_MB.all.mb58.gz 65.48MB Kongsberg multibeam vendor format
0440_20170416_131405_EX1704_MB.all.mb58.gz 65.60MB Kongsberg multibeam vendor format
0441_20170416_141405_EX1704_MB.all.mb58.gz 19.93MB Kongsberg multibeam vendor format
0442_20170416_143223_EX1704_MB.all.mb58.gz 65.22MB Kongsberg multibeam vendor format
0443_20170416_153220_EX1704_MB.all.mb58.gz 65.32MB Kongsberg multibeam vendor format
0444_20170416_163223_EX1704_MB.all.mb58.gz 25.16MB Kongsberg multibeam vendor format
0445_20170416_165527_EX1704_MB.all.mb58.gz 4.23MB Kongsberg multibeam vendor format
0446_20170416_165919_EX1704_MB.all.mb58.gz 23.51MB Kongsberg multibeam vendor format
0447_20170416_172056_EX1704_MB.all.mb58.gz 65.07MB Kongsberg multibeam vendor format
0448_20170416_182050_EX1704_MB.all.mb58.gz 49.01MB Kongsberg multibeam vendor format
0449_20170416_190550_EX1704_MB.all.mb58.gz 2.11MB Kongsberg multibeam vendor format
0450_20170416_190746_EX1704_MB.all.mb58.gz 17.00MB Kongsberg multibeam vendor format
0451_20170416_192326_EX1704_MB.all.mb58.gz 2.45MB Kongsberg multibeam vendor format
0452_20170416_192540_EX1704_MB.all.mb58.gz 67.95MB Kongsberg multibeam vendor format
0453_20170416_202540_EX1704_MB.all.mb58.gz 40.17MB Kongsberg multibeam vendor format
0454_20170416_210212_EX1704_MB.all.mb58.gz 2.42MB Kongsberg multibeam vendor format
0455_20170416_210425_EX1704_MB.all.mb58.gz 20.93MB Kongsberg multibeam vendor format
0456_20170416_212343_EX1704_MB.all.mb58.gz 67.92MB Kongsberg multibeam vendor format
0457_20170416_222337_EX1704_MB.all.mb58.gz 68.86MB Kongsberg multibeam vendor format
0458_20170416_232343_EX1704_MB.all.mb58.gz 2.06MB Kongsberg multibeam vendor format
0459_20170416_232536_EX1704_MB.all.mb58.gz 3.71MB Kongsberg multibeam vendor format
0460_20170416_232901_EX1704_MB.all.mb58.gz 15.38MB Kongsberg multibeam vendor format
0461_20170416_234313_EX1704_MB.all.mb58.gz 3.62MB Kongsberg multibeam vendor format
0462_20170416_234634_EX1704_MB.all.mb58.gz 15.37MB Kongsberg multibeam vendor format
0463_20170417_000046_EX1704_MB.all.mb58.gz 64.77MB Kongsberg multibeam vendor format
0464_20170417_010036_EX1704_MB.all.mb58.gz 45.18MB Kongsberg multibeam vendor format
0465_20170417_014210_EX1704_MB.all.mb58.gz 5.03MB Kongsberg multibeam vendor format
0466_20170417_014645_EX1704_MB.all.mb58.gz 65.64MB Kongsberg multibeam vendor format
0467_20170417_024639_EX1704_MB.all.mb58.gz 65.59MB Kongsberg multibeam vendor format
0468_20170417_034642_EX1704_MB.all.mb58.gz 65.73MB Kongsberg multibeam vendor format
0469_20170417_044644_EX1704_MB.all.mb58.gz 65.57MB Kongsberg multibeam vendor format
0470_20170417_054639_EX1704_MB.all.mb58.gz 65.75MB Kongsberg multibeam vendor format
0471_20170417_064640_EX1704_MB.all.mb58.gz 65.73MB Kongsberg multibeam vendor format
0472_20170417_074641_EX1704_MB.all.mb58.gz 57.62MB Kongsberg multibeam vendor format
0473_20170417_083926_EX1704_MB.all.mb58.gz 4.10MB Kongsberg multibeam vendor format
0474_20170417_084310_EX1704_MB.all.mb58.gz 65.67MB Kongsberg multibeam vendor format
0475_20170417_094315_EX1704_MB.all.mb58.gz 24.11MB Kongsberg multibeam vendor format
0476_20170417_100521_EX1704_MB.all.mb58.gz 23.59MB Kongsberg multibeam vendor format
0477_20170417_102658_EX1704_MB.all.mb58.gz 65.50MB Kongsberg multibeam vendor format
0478_20170417_112656_EX1704_MB.all.mb58.gz 22.92MB Kongsberg multibeam vendor format
0479_20170417_114756_EX1704_MB.all.mb58.gz 22.42MB Kongsberg multibeam vendor format
0480_20170417_120833_EX1704_MB.all.mb58.gz 68.23MB Kongsberg multibeam vendor format
0481_20170417_130842_EX1704_MB.all.mb58.gz 24.03MB Kongsberg multibeam vendor format
0482_20170417_133039_EX1704_MB.all.mb58.gz 21.72MB Kongsberg multibeam vendor format
0483_20170417_135037_EX1704_MB.all.mb58.gz 65.37MB Kongsberg multibeam vendor format
0484_20170417_145040_EX1704_MB.all.mb58.gz 26.91MB Kongsberg multibeam vendor format
0485_20170417_151520_EX1704_MB.all.mb58.gz 26.14MB Kongsberg multibeam vendor format
0486_20170417_153923_EX1704_MB.all.mb58.gz 65.30MB Kongsberg multibeam vendor format
0487_20170417_163930_EX1704_MB.all.mb58.gz 3.75MB Kongsberg multibeam vendor format
0488_20170417_164255_EX1704_MB.all.mb58.gz 29.55MB Kongsberg multibeam vendor format
0489_20170417_171001_EX1704_MB.all.mb58.gz 65.48MB Kongsberg multibeam vendor format
0490_20170417_180959_EX1704_MB.all.mb58.gz 65.23MB Kongsberg multibeam vendor format
0491_20170417_190956_EX1704_MB.all.mb58.gz 65.56MB Kongsberg multibeam vendor format
0492_20170417_200958_EX1704_MB.all.mb58.gz 65.64MB Kongsberg multibeam vendor format
0493_20170417_210956_EX1704_MB.all.mb58.gz 1.23MB Kongsberg multibeam vendor format
0494_20170417_211103_EX1704_MB.all.mb58.gz 65.61MB Kongsberg multibeam vendor format
0495_20170417_221105_EX1704_MB.all.mb58.gz 49.23MB Kongsberg multibeam vendor format
0496_20170417_225620_EX1704_MB.all.mb58.gz 65.12MB Kongsberg multibeam vendor format
0497_20170417_235621_EX1704_MB.all.mb58.gz 6.85MB Kongsberg multibeam vendor format
0498_20170418_000238_EX1704_MB.all.mb58.gz 65.16MB Kongsberg multibeam vendor format
0499_20170418_010234_EX1704_MB.all.mb58.gz 65.20MB Kongsberg multibeam vendor format
0500_20170418_020231_EX1704_MB.all.mb58.gz 65.30MB Kongsberg multibeam vendor format
0501_20170418_030237_EX1704_MB.all.mb58.gz 65.26MB Kongsberg multibeam vendor format
0502_20170418_040234_EX1704_MB.all.mb58.gz 26.49MB Kongsberg multibeam vendor format
0503_20170418_042652_EX1704_MB.all.mb58.gz 65.57MB Kongsberg multibeam vendor format
0504_20170418_052655_EX1704_MB.all.mb58.gz 45.98MB Kongsberg multibeam vendor format
0505_20170418_060900_EX1704_MB.all.mb58.gz 23.38MB Kongsberg multibeam vendor format
0506_20170418_063024_EX1704_MB.all.mb58.gz 65.82MB Kongsberg multibeam vendor format
0507_20170418_073028_EX1704_MB.all.mb58.gz 50.17MB Kongsberg multibeam vendor format
0508_20170418_081619_EX1704_MB.all.mb58.gz 19.27MB Kongsberg multibeam vendor format
0509_20170418_083358_EX1704_MB.all.mb58.gz 2.42MB Kongsberg multibeam vendor format
0510_20170418_083611_EX1704_MB.all.mb58.gz 65.67MB Kongsberg multibeam vendor format
0511_20170418_093612_EX1704_MB.all.mb58.gz 52.03MB Kongsberg multibeam vendor format
0512_20170418_102402_EX1704_MB.all.mb58.gz 25.49MB Kongsberg multibeam vendor format
0513_20170418_104730_EX1704_MB.all.mb58.gz 65.60MB Kongsberg multibeam vendor format
0514_20170418_114735_EX1704_MB.all.mb58.gz 45.20MB Kongsberg multibeam vendor format
0515_20170418_122907_EX1704_MB.all.mb58.gz 23.86MB Kongsberg multibeam vendor format
0516_20170418_125056_EX1704_MB.all.mb58.gz 65.55MB Kongsberg multibeam vendor format
0517_20170418_135054_EX1704_MB.all.mb58.gz 40.10MB Kongsberg multibeam vendor format
0518_20170418_142738_EX1704_MB.all.mb58.gz 25.96MB Kongsberg multibeam vendor format
0519_20170418_145124_EX1704_MB.all.mb58.gz 65.56MB Kongsberg multibeam vendor format
0520_20170418_155124_EX1704_MB.all.mb58.gz 27.74MB Kongsberg multibeam vendor format
0521_20170418_161644_EX1704_MB.all.mb58.gz 22.62MB Kongsberg multibeam vendor format
0522_20170418_163726_EX1704_MB.all.mb58.gz 65.83MB Kongsberg multibeam vendor format
0523_20170418_173731_EX1704_MB.all.mb58.gz 40.01MB Kongsberg multibeam vendor format
0524_20170418_181410_EX1704_MB.all.mb58.gz 65.56MB Kongsberg multibeam vendor format
0525_20170418_191413_EX1704_MB.all.mb58.gz 10.56MB Kongsberg multibeam vendor format
0526_20170418_192350_EX1704_MB.all.mb58.gz 2.32MB Kongsberg multibeam vendor format
0527_20170418_192557_EX1704_MB.all.mb58.gz 17.42MB Kongsberg multibeam vendor format
0528_20170418_194153_EX1704_MB.all.mb58.gz 1.92MB Kongsberg multibeam vendor format
0529_20170418_194338_EX1704_MB.all.mb58.gz 65.58MB Kongsberg multibeam vendor format
0530_20170418_204338_EX1704_MB.all.mb58.gz 8.23MB Kongsberg multibeam vendor format
0531_20170418_205106_EX1704_MB.all.mb58.gz 2.84MB Kongsberg multibeam vendor format
0532_20170418_205342_EX1704_MB.all.mb58.gz 65.57MB Kongsberg multibeam vendor format
0533_20170418_215336_EX1704_MB.all.mb58.gz 65.78MB Kongsberg multibeam vendor format
0534_20170418_225337_EX1704_MB.all.mb58.gz 65.86MB Kongsberg multibeam vendor format
0535_20170418_235340_EX1704_MB.all.mb58.gz 13.23MB Kongsberg multibeam vendor format
0536_20170419_000544_EX1704_MB.all.mb58.gz 11.56MB Kongsberg multibeam vendor format
0537_20170419_001617_EX1704_MB.all.mb58.gz 1.57MB Kongsberg multibeam vendor format
0538_20170419_001743_EX1704_MB.all.mb58.gz 65.60MB Kongsberg multibeam vendor format
0539_20170419_011739_EX1704_MB.all.mb58.gz 25.57MB Kongsberg multibeam vendor format
0540_20170419_014104_EX1704_MB.all.mb58.gz 3.76MB Kongsberg multibeam vendor format
0541_20170419_014430_EX1704_MB.all.mb58.gz 42.30MB Kongsberg multibeam vendor format
0542_20170419_022308_EX1704_MB.all.mb58.gz 65.48MB Kongsberg multibeam vendor format
0543_20170419_032310_EX1704_MB.all.mb58.gz 28.23MB Kongsberg multibeam vendor format
0544_20170419_034858_EX1704_MB.all.mb58.gz 7.78MB Kongsberg multibeam vendor format
0545_20170419_035603_EX1704_MB.all.mb58.gz 65.75MB Kongsberg multibeam vendor format
0546_20170419_045602_EX1704_MB.all.mb58.gz 65.71MB Kongsberg multibeam vendor format
0547_20170419_055601_EX1704_MB.all.mb58.gz 65.86MB Kongsberg multibeam vendor format
0548_20170419_065607_EX1704_MB.all.mb58.gz 65.65MB Kongsberg multibeam vendor format
0549_20170419_075603_EX1704_MB.all.mb58.gz 62.36MB Kongsberg multibeam vendor format
0550_20170419_085254_EX1704_MB.all.mb58.gz 20.16MB Kongsberg multibeam vendor format
0551_20170419_091118_EX1704_MB.all.mb58.gz 66.03MB Kongsberg multibeam vendor format
0552_20170419_101115_EX1704_MB.all.mb58.gz 26.18MB Kongsberg multibeam vendor format
0553_20170419_103506_EX1704_MB.all.mb58.gz 19.70MB Kongsberg multibeam vendor format
0554_20170419_105304_EX1704_MB.all.mb58.gz 65.89MB Kongsberg multibeam vendor format
0555_20170419_115311_EX1704_MB.all.mb58.gz 26.76MB Kongsberg multibeam vendor format
0556_20170419_121741_EX1704_MB.all.mb58.gz 65.57MB Kongsberg multibeam vendor format
0557_20170419_131732_EX1704_MB.all.mb58.gz 65.82MB Kongsberg multibeam vendor format
0558_20170419_141736_EX1704_MB.all.mb58.gz 65.76MB Kongsberg multibeam vendor format
0559_20170419_151741_EX1704_MB.all.mb58.gz 65.62MB Kongsberg multibeam vendor format
0560_20170419_161737_EX1704_MB.all.mb58.gz 21.07MB Kongsberg multibeam vendor format
0561_20170419_163649_EX1704_MB.all.mb58.gz 38.30MB Kongsberg multibeam vendor format
0562_20170419_171116_EX1704_MB.all.mb58.gz 69.38MB Kongsberg multibeam vendor format
0563_20170419_181116_EX1704_MB.all.mb58.gz 69.97MB Kongsberg multibeam vendor format
0564_20170419_191115_EX1704_MB.all.mb58.gz 10.55MB Kongsberg multibeam vendor format
0565_20170419_191903_EX1704_MB.all.mb58.gz 81.47MB Kongsberg multibeam vendor format
0566_20170419_201903_EX1704_MB.all.mb58.gz 80.40MB Kongsberg multibeam vendor format
0567_20170419_211906_EX1704_MB.all.mb58.gz 71.79MB Kongsberg multibeam vendor format
0568_20170419_221909_EX1704_MB.all.mb58.gz 63.51MB Kongsberg multibeam vendor format
0569_20170419_231518_EX1704_MB.all.mb58.gz 2.47MB Kongsberg multibeam vendor format
0570_20170419_231712_EX1704_MB.all.mb58.gz 34.69MB Kongsberg multibeam vendor format
0571_20170419_234237_EX1704_MB.all.mb58.gz 19.64MB Kongsberg multibeam vendor format
0572_20170419_235637_EX1704_MB.all.mb58.gz 5.82MB Kongsberg multibeam vendor format
0573_20170419_235951_EX1704_MB.all.mb58.gz 41.60MB Kongsberg multibeam vendor format
0574_20170420_002502_EX1704_MB.all.mb58.gz 71.76MB Kongsberg multibeam vendor format
0575_20170420_011825_EX1704_MB.all.mb58.gz 76.09MB Kongsberg multibeam vendor format
0576_20170420_021404_EX1704_MB.all.mb58.gz 49.57MB Kongsberg multibeam vendor format
0577_20170420_025036_EX1704_MB.all.mb58.gz 80.27MB Kongsberg multibeam vendor format
0578_20170420_035037_EX1704_MB.all.mb58.gz 68.19MB Kongsberg multibeam vendor format
0579_20170420_044455_EX1704_MB.all.mb58.gz 68.38MB Kongsberg multibeam vendor format
0580_20170420_054453_EX1704_MB.all.mb58.gz 13.88MB Kongsberg multibeam vendor format
0581_20170420_055709_EX1704_MB.all.mb58.gz 17.37MB Kongsberg multibeam vendor format
0582_20170420_061227_EX1704_MB.all.mb58.gz 68.69MB Kongsberg multibeam vendor format
0583_20170420_071227_EX1704_MB.all.mb58.gz 11.91MB Kongsberg multibeam vendor format
0584_20170420_072247_EX1704_MB.all.mb58.gz 21.23MB Kongsberg multibeam vendor format
0585_20170420_073834_EX1704_MB.all.mb58.gz 75.40MB Kongsberg multibeam vendor format
0586_20170420_083834_EX1704_MB.all.mb58.gz 12.27MB Kongsberg multibeam vendor format
0587_20170420_084920_EX1704_MB.all.mb58.gz 21.38MB Kongsberg multibeam vendor format
0588_20170420_090800_EX1704_MB.all.mb58.gz 78.25MB Kongsberg multibeam vendor format
0589_20170420_100802_EX1704_MB.all.mb58.gz 14.69MB Kongsberg multibeam vendor format
0590_20170420_101832_EX1704_MB.all.mb58.gz 23.33MB Kongsberg multibeam vendor format
0591_20170420_103505_EX1704_MB.all.mb58.gz 82.14MB Kongsberg multibeam vendor format
0592_20170420_113505_EX1704_MB.all.mb58.gz 8.93MB Kongsberg multibeam vendor format
0593_20170420_114246_EX1704_MB.all.mb58.gz 78.15MB Kongsberg multibeam vendor format
0594_20170420_124249_EX1704_MB.all.mb58.gz 22.28MB Kongsberg multibeam vendor format
0595_20170420_125846_EX1704_MB.all.mb58.gz 83.54MB Kongsberg multibeam vendor format
0596_20170420_135846_EX1704_MB.all.mb58.gz 80.22MB Kongsberg multibeam vendor format
0597_20170420_145849_EX1704_MB.all.mb58.gz 79.47MB Kongsberg multibeam vendor format
0598_20170420_155844_EX1704_MB.all.mb58.gz 15.49MB Kongsberg multibeam vendor format
0599_20170420_161022_EX1704_MB.all.mb58.gz 18.88MB Kongsberg multibeam vendor format

Full Resolution Bathymetry (processed): 599

Files File Size Description
0000_20170403_212548_EX1704_MB-EM302.gsf.mb121.gz 11.37MB SAIC Generic Sensor Format (GSF)
0001_20170403_212841_EX1704_MB-EM302.gsf.mb121.gz 52.13MB SAIC Generic Sensor Format (GSF)
0002_20170403_222840_EX1704_MB-EM302.gsf.mb121.gz 60.40MB SAIC Generic Sensor Format (GSF)
0003_20170403_232839_EX1704_MB-EM302.gsf.mb121.gz 41.14MB SAIC Generic Sensor Format (GSF)
0005_20170404_002837_EX1704_MB-EM302.gsf.mb121.gz 27.12MB SAIC Generic Sensor Format (GSF)
0006_20170404_004913_EX1704_MB-EM302.gsf.mb121.gz 48.84MB SAIC Generic Sensor Format (GSF)
0007_20170404_014907_EX1704_MB-EM302.gsf.mb121.gz 46.94MB SAIC Generic Sensor Format (GSF)
0008_20170404_023120_EX1704_MB-EM302.gsf.mb121.gz 37.99MB SAIC Generic Sensor Format (GSF)
0009_20170404_033123_EX1704_MB-EM302.gsf.mb121.gz 15.44MB SAIC Generic Sensor Format (GSF)
0010_20170404_034804_EX1704_MB-EM302.gsf.mb121.gz 4.96MB SAIC Generic Sensor Format (GSF)
0011_20170404_035234_EX1704_MB-EM302.gsf.mb121.gz 4.16MB SAIC Generic Sensor Format (GSF)
0012_20170404_035638_EX1704_MB-EM302.gsf.mb121.gz 12.40MB SAIC Generic Sensor Format (GSF)
0013_20170404_040211_EX1704_MB-EM302.gsf.mb121.gz 33.11MB SAIC Generic Sensor Format (GSF)
0014_20170404_050212_EX1704_MB-EM302.gsf.mb121.gz 35.08MB SAIC Generic Sensor Format (GSF)
0015_20170404_055905_EX1704_MB-EM302.gsf.mb121.gz 26.56MB SAIC Generic Sensor Format (GSF)
0016_20170404_063138_EX1704_MB-EM302.gsf.mb121.gz 34.33MB SAIC Generic Sensor Format (GSF)
0017_20170404_073133_EX1704_MB-EM302.gsf.mb121.gz 38.55MB SAIC Generic Sensor Format (GSF)
0018_20170404_083132_EX1704_MB-EM302.gsf.mb121.gz 34.00MB SAIC Generic Sensor Format (GSF)
0019_20170404_093132_EX1704_MB-EM302.gsf.mb121.gz 27.63MB SAIC Generic Sensor Format (GSF)
0020_20170404_095555_EX1704_MB-EM302.gsf.mb121.gz 35.64MB SAIC Generic Sensor Format (GSF)
0021_20170404_105552_EX1704_MB-EM302.gsf.mb121.gz 33.01MB SAIC Generic Sensor Format (GSF)
0022_20170404_115558_EX1704_MB-EM302.gsf.mb121.gz 19.73MB SAIC Generic Sensor Format (GSF)
0023_20170404_121327_EX1704_MB-EM302.gsf.mb121.gz 18.96MB SAIC Generic Sensor Format (GSF)
0024_20170404_123835_EX1704_MB-EM302.gsf.mb121.gz 32.72MB SAIC Generic Sensor Format (GSF)
0025_20170404_133835_EX1704_MB-EM302.gsf.mb121.gz 36.87MB SAIC Generic Sensor Format (GSF)
0026_20170404_143837_EX1704_MB-EM302.gsf.mb121.gz 27.64MB SAIC Generic Sensor Format (GSF)
0027_20170404_151957_EX1704_MB-EM302.gsf.mb121.gz 23.58MB SAIC Generic Sensor Format (GSF)
0028_20170404_154157_EX1704_MB-EM302.gsf.mb121.gz 34.01MB SAIC Generic Sensor Format (GSF)
0029_20170404_164157_EX1704_MB-EM302.gsf.mb121.gz 31.66MB SAIC Generic Sensor Format (GSF)
0030_20170404_174155_EX1704_MB-EM302.gsf.mb121.gz 14.26MB SAIC Generic Sensor Format (GSF)
0031_20170404_175327_EX1704_MB-EM302.gsf.mb121.gz 13.11MB SAIC Generic Sensor Format (GSF)
0032_20170404_175824_EX1704_MB-EM302.gsf.mb121.gz 30.16MB SAIC Generic Sensor Format (GSF)
0033_20170404_185825_EX1704_MB-EM302.gsf.mb121.gz 39.70MB SAIC Generic Sensor Format (GSF)
0034_20170404_195826_EX1704_MB-EM302.gsf.mb121.gz 45.00MB SAIC Generic Sensor Format (GSF)
0035_20170404_205019_EX1704_MB-EM302.gsf.mb121.gz 103.77MB SAIC Generic Sensor Format (GSF)
0036_20170404_215017_EX1704_MB-EM302.gsf.mb121.gz 63.14MB SAIC Generic Sensor Format (GSF)
0037_20170404_225018_EX1704_MB-EM302.gsf.mb121.gz 61.19MB SAIC Generic Sensor Format (GSF)
0038_20170404_235021_EX1704_MB-EM302.gsf.mb121.gz 97.07MB SAIC Generic Sensor Format (GSF)
0039_20170405_005017_EX1704_MB-EM302.gsf.mb121.gz 59.53MB SAIC Generic Sensor Format (GSF)
0040_20170405_012716_EX1704_MB-EM302.gsf.mb121.gz 23.34MB SAIC Generic Sensor Format (GSF)
0041_20170405_013834_EX1704_MB-EM302.gsf.mb121.gz 51.61MB SAIC Generic Sensor Format (GSF)
0042_20170405_023835_EX1704_MB-EM302.gsf.mb121.gz 58.53MB SAIC Generic Sensor Format (GSF)
0043_20170405_033841_EX1704_MB-EM302.gsf.mb121.gz 59.52MB SAIC Generic Sensor Format (GSF)
0044_20170405_043838_EX1704_MB-EM302.gsf.mb121.gz 56.78MB SAIC Generic Sensor Format (GSF)
0045_20170405_053837_EX1704_MB-EM302.gsf.mb121.gz 42.39MB SAIC Generic Sensor Format (GSF)
0046_20170405_055525_EX1704_MB-EM302.gsf.mb121.gz 33.01MB SAIC Generic Sensor Format (GSF)
0047_20170405_062042_EX1704_MB-EM302.gsf.mb121.gz 56.81MB SAIC Generic Sensor Format (GSF)
0048_20170405_072045_EX1704_MB-EM302.gsf.mb121.gz 59.41MB SAIC Generic Sensor Format (GSF)
0049_20170405_082044_EX1704_MB-EM302.gsf.mb121.gz 58.97MB SAIC Generic Sensor Format (GSF)
0050_20170405_092048_EX1704_MB-EM302.gsf.mb121.gz 53.78MB SAIC Generic Sensor Format (GSF)
0051_20170405_102043_EX1704_MB-EM302.gsf.mb121.gz 30.71MB SAIC Generic Sensor Format (GSF)
0052_20170405_104817_EX1704_MB-EM302.gsf.mb121.gz 25.13MB SAIC Generic Sensor Format (GSF)
0053_20170405_110754_EX1704_MB-EM302.gsf.mb121.gz 46.90MB SAIC Generic Sensor Format (GSF)
0054_20170405_120753_EX1704_MB-EM302.gsf.mb121.gz 56.06MB SAIC Generic Sensor Format (GSF)
0055_20170405_130752_EX1704_MB-EM302.gsf.mb121.gz 57.24MB SAIC Generic Sensor Format (GSF)
0056_20170405_140751_EX1704_MB-EM302.gsf.mb121.gz 56.04MB SAIC Generic Sensor Format (GSF)
0057_20170405_150755_EX1704_MB-EM302.gsf.mb121.gz 47.67MB SAIC Generic Sensor Format (GSF)
0058_20170405_155117_EX1704_MB-EM302.gsf.mb121.gz 50.24MB SAIC Generic Sensor Format (GSF)
0059_20170405_165122_EX1704_MB-EM302.gsf.mb121.gz 42.70MB SAIC Generic Sensor Format (GSF)
0060_20170405_175122_EX1704_MB-EM302.gsf.mb121.gz 13.77MB SAIC Generic Sensor Format (GSF)
0061_20170405_175403_EX1704_MB-EM302.gsf.mb121.gz 20.28MB SAIC Generic Sensor Format (GSF)
0062_20170405_180824_EX1704_MB-EM302.gsf.mb121.gz 48.94MB SAIC Generic Sensor Format (GSF)
0063_20170405_190824_EX1704_MB-EM302.gsf.mb121.gz 16.34MB SAIC Generic Sensor Format (GSF)
0064_20170405_191245_EX1704_MB-EM302.gsf.mb121.gz 26.17MB SAIC Generic Sensor Format (GSF)
0065_20170405_192634_EX1704_MB-EM302.gsf.mb121.gz 32.56MB SAIC Generic Sensor Format (GSF)
0066_20170405_194423_EX1704_MB-EM302.gsf.mb121.gz 25.95MB SAIC Generic Sensor Format (GSF)
0067_20170405_200655_EX1704_MB-EM302.gsf.mb121.gz 19.52MB SAIC Generic Sensor Format (GSF)
0068_20170405_201532_EX1704_MB-EM302.gsf.mb121.gz 43.52MB SAIC Generic Sensor Format (GSF)
0069_20170405_210307_EX1704_MB-EM302.gsf.mb121.gz 50.77MB SAIC Generic Sensor Format (GSF)
0070_20170405_220308_EX1704_MB-EM302.gsf.mb121.gz 19.27MB SAIC Generic Sensor Format (GSF)
0071_20170405_221310_EX1704_MB-EM302.gsf.mb121.gz 11.36MB SAIC Generic Sensor Format (GSF)
0072_20170405_222505_EX1704_MB-EM302.gsf.mb121.gz 10.15MB SAIC Generic Sensor Format (GSF)
0073_20170405_223701_EX1704_MB-EM302.gsf.mb121.gz 14.11MB SAIC Generic Sensor Format (GSF)
0074_20170405_224111_EX1704_MB-EM302.gsf.mb121.gz 38.81MB SAIC Generic Sensor Format (GSF)
0075_20170405_234113_EX1704_MB-EM302.gsf.mb121.gz 15.31MB SAIC Generic Sensor Format (GSF)
0076_20170405_234609_EX1704_MB-EM302.gsf.mb121.gz 13.83MB SAIC Generic Sensor Format (GSF)
0077_20170406_000330_EX1704_MB-EM302.gsf.mb121.gz 13.17MB SAIC Generic Sensor Format (GSF)
0078_20170406_001828_EX1704_MB-EM302.gsf.mb121.gz 6.21MB SAIC Generic Sensor Format (GSF)
0079_20170406_011124_EX1704_MB-EM302.gsf.mb121.gz 39.84MB SAIC Generic Sensor Format (GSF)
0080_20170406_021124_EX1704_MB-EM302.gsf.mb121.gz 35.49MB SAIC Generic Sensor Format (GSF)
0081_20170406_025149_EX1704_MB-EM302.gsf.mb121.gz 10.92MB SAIC Generic Sensor Format (GSF)
0082_20170406_025405_EX1704_MB-EM302.gsf.mb121.gz 12.93MB SAIC Generic Sensor Format (GSF)
0083_20170406_031240_EX1704_MB-EM302.gsf.mb121.gz 16.25MB SAIC Generic Sensor Format (GSF)
0084_20170406_032032_EX1704_MB-EM302.gsf.mb121.gz 43.34MB SAIC Generic Sensor Format (GSF)
0085_20170406_042032_EX1704_MB-EM302.gsf.mb121.gz 32.91MB SAIC Generic Sensor Format (GSF)
0086_20170406_050402_EX1704_MB-EM302.gsf.mb121.gz 18.23MB SAIC Generic Sensor Format (GSF)
0087_20170406_050847_EX1704_MB-EM302.gsf.mb121.gz 32.40MB SAIC Generic Sensor Format (GSF)
0088_20170406_060849_EX1704_MB-EM302.gsf.mb121.gz 39.99MB SAIC Generic Sensor Format (GSF)
0089_20170406_070844_EX1704_MB-EM302.gsf.mb121.gz 39.60MB SAIC Generic Sensor Format (GSF)
0090_20170406_080852_EX1704_MB-EM302.gsf.mb121.gz 36.91MB SAIC Generic Sensor Format (GSF)
0091_20170406_090845_EX1704_MB-EM302.gsf.mb121.gz 33.18MB SAIC Generic Sensor Format (GSF)
0092_20170406_094736_EX1704_MB-EM302.gsf.mb121.gz 40.12MB SAIC Generic Sensor Format (GSF)
0093_20170406_104743_EX1704_MB-EM302.gsf.mb121.gz 50.29MB SAIC Generic Sensor Format (GSF)
0094_20170406_114739_EX1704_MB-EM302.gsf.mb121.gz 40.48MB SAIC Generic Sensor Format (GSF)
0095_20170406_124740_EX1704_MB-EM302.gsf.mb121.gz 39.32MB SAIC Generic Sensor Format (GSF)
0096_20170406_134744_EX1704_MB-EM302.gsf.mb121.gz 39.16MB SAIC Generic Sensor Format (GSF)
0097_20170406_144743_EX1704_MB-EM302.gsf.mb121.gz 39.36MB SAIC Generic Sensor Format (GSF)
0098_20170406_154740_EX1704_MB-EM302.gsf.mb121.gz 31.04MB SAIC Generic Sensor Format (GSF)
0099_20170406_164742_EX1704_MB-EM302.gsf.mb121.gz 16.82MB SAIC Generic Sensor Format (GSF)
0100_20170406_165905_EX1704_MB-EM302.gsf.mb121.gz 18.47MB SAIC Generic Sensor Format (GSF)
0101_20170406_172041_EX1704_MB-EM302.gsf.mb121.gz 32.80MB SAIC Generic Sensor Format (GSF)
0102_20170406_182034_EX1704_MB-EM302.gsf.mb121.gz 38.72MB SAIC Generic Sensor Format (GSF)
0103_20170406_192038_EX1704_MB-EM302.gsf.mb121.gz 38.82MB SAIC Generic Sensor Format (GSF)
0104_20170406_202036_EX1704_MB-EM302.gsf.mb121.gz 38.92MB SAIC Generic Sensor Format (GSF)
0105_20170406_212033_EX1704_MB-EM302.gsf.mb121.gz 39.30MB SAIC Generic Sensor Format (GSF)
0106_20170406_222034_EX1704_MB-EM302.gsf.mb121.gz 40.29MB SAIC Generic Sensor Format (GSF)
0107_20170406_232040_EX1704_MB-EM302.gsf.mb121.gz 31.54MB SAIC Generic Sensor Format (GSF)
0108_20170407_002038_EX1704_MB-EM302.gsf.mb121.gz 15.65MB SAIC Generic Sensor Format (GSF)
0109_20170407_002810_EX1704_MB-EM302.gsf.mb121.gz 18.09MB SAIC Generic Sensor Format (GSF)
0110_20170407_004919_EX1704_MB-EM302.gsf.mb121.gz 33.25MB SAIC Generic Sensor Format (GSF)
0111_20170407_014916_EX1704_MB-EM302.gsf.mb121.gz 39.45MB SAIC Generic Sensor Format (GSF)
0112_20170407_024919_EX1704_MB-EM302.gsf.mb121.gz 39.13MB SAIC Generic Sensor Format (GSF)
0113_20170407_034916_EX1704_MB-EM302.gsf.mb121.gz 38.68MB SAIC Generic Sensor Format (GSF)
0114_20170407_044918_EX1704_MB-EM302.gsf.mb121.gz 38.77MB SAIC Generic Sensor Format (GSF)
0115_20170407_054910_EX1704_MB-EM302.gsf.mb121.gz 38.36MB SAIC Generic Sensor Format (GSF)
0116_20170407_064911_EX1704_MB-EM302.gsf.mb121.gz 32.23MB SAIC Generic Sensor Format (GSF)
0117_20170407_074823_EX1704_MB-EM302.gsf.mb121.gz 25.97MB SAIC Generic Sensor Format (GSF)
0118_20170407_081017_EX1704_MB-EM302.gsf.mb121.gz 31.99MB SAIC Generic Sensor Format (GSF)
0119_20170407_091018_EX1704_MB-EM302.gsf.mb121.gz 38.34MB SAIC Generic Sensor Format (GSF)
0120_20170407_101018_EX1704_MB-EM302.gsf.mb121.gz 38.56MB SAIC Generic Sensor Format (GSF)
0121_20170407_111014_EX1704_MB-EM302.gsf.mb121.gz 38.72MB SAIC Generic Sensor Format (GSF)
0122_20170407_121022_EX1704_MB-EM302.gsf.mb121.gz 38.92MB SAIC Generic Sensor Format (GSF)
0123_20170407_131021_EX1704_MB-EM302.gsf.mb121.gz 36.68MB SAIC Generic Sensor Format (GSF)
0124_20170407_141020_EX1704_MB-EM302.gsf.mb121.gz 27.89MB SAIC Generic Sensor Format (GSF)
0125_20170407_145510_EX1704_MB-EM302.gsf.mb121.gz 23.62MB SAIC Generic Sensor Format (GSF)
0126_20170407_151526_EX1704_MB-EM302.gsf.mb121.gz 32.42MB SAIC Generic Sensor Format (GSF)
0127_20170407_161526_EX1704_MB-EM302.gsf.mb121.gz 38.53MB SAIC Generic Sensor Format (GSF)
0128_20170407_171528_EX1704_MB-EM302.gsf.mb121.gz 39.16MB SAIC Generic Sensor Format (GSF)
0129_20170407_181533_EX1704_MB-EM302.gsf.mb121.gz 39.02MB SAIC Generic Sensor Format (GSF)
0130_20170407_191530_EX1704_MB-EM302.gsf.mb121.gz 38.65MB SAIC Generic Sensor Format (GSF)
0131_20170407_201526_EX1704_MB-EM302.gsf.mb121.gz 35.42MB SAIC Generic Sensor Format (GSF)
0132_20170407_211524_EX1704_MB-EM302.gsf.mb121.gz 26.58MB SAIC Generic Sensor Format (GSF)
0133_20170407_215636_EX1704_MB-EM302.gsf.mb121.gz 23.46MB SAIC Generic Sensor Format (GSF)
0134_20170407_221910_EX1704_MB-EM302.gsf.mb121.gz 32.40MB SAIC Generic Sensor Format (GSF)
0135_20170407_231911_EX1704_MB-EM302.gsf.mb121.gz 35.78MB SAIC Generic Sensor Format (GSF)
0136_20170408_001911_EX1704_MB-EM302.gsf.mb121.gz 33.58MB SAIC Generic Sensor Format (GSF)
0137_20170408_010322_EX1704_MB-EM302.gsf.mb121.gz 36.07MB SAIC Generic Sensor Format (GSF)
0138_20170408_020330_EX1704_MB-EM302.gsf.mb121.gz 38.87MB SAIC Generic Sensor Format (GSF)
0139_20170408_030325_EX1704_MB-EM302.gsf.mb121.gz 38.40MB SAIC Generic Sensor Format (GSF)
0140_20170408_040322_EX1704_MB-EM302.gsf.mb121.gz 30.17MB SAIC Generic Sensor Format (GSF)
0141_20170408_050329_EX1704_MB-EM302.gsf.mb121.gz 15.87MB SAIC Generic Sensor Format (GSF)
0142_20170408_051012_EX1704_MB-EM302.gsf.mb121.gz 18.84MB SAIC Generic Sensor Format (GSF)
0143_20170408_053519_EX1704_MB-EM302.gsf.mb121.gz 33.32MB SAIC Generic Sensor Format (GSF)
0144_20170408_063517_EX1704_MB-EM302.gsf.mb121.gz 38.73MB SAIC Generic Sensor Format (GSF)
0145_20170408_073514_EX1704_MB-EM302.gsf.mb121.gz 38.45MB SAIC Generic Sensor Format (GSF)
0146_20170408_083513_EX1704_MB-EM302.gsf.mb121.gz 38.33MB SAIC Generic Sensor Format (GSF)
0147_20170408_093514_EX1704_MB-EM302.gsf.mb121.gz 38.39MB SAIC Generic Sensor Format (GSF)
0148_20170408_103518_EX1704_MB-EM302.gsf.mb121.gz 33.98MB SAIC Generic Sensor Format (GSF)
0149_20170408_113520_EX1704_MB-EM302.gsf.mb121.gz 24.56MB SAIC Generic Sensor Format (GSF)
0150_20170408_120737_EX1704_MB-EM302.gsf.mb121.gz 24.01MB SAIC Generic Sensor Format (GSF)
0151_20170408_123629_EX1704_MB-EM302.gsf.mb121.gz 33.40MB SAIC Generic Sensor Format (GSF)
0152_20170408_133626_EX1704_MB-EM302.gsf.mb121.gz 38.40MB SAIC Generic Sensor Format (GSF)
0153_20170408_143629_EX1704_MB-EM302.gsf.mb121.gz 38.39MB SAIC Generic Sensor Format (GSF)
0154_20170408_153633_EX1704_MB-EM302.gsf.mb121.gz 29.88MB SAIC Generic Sensor Format (GSF)
0155_20170408_163631_EX1704_MB-EM302.gsf.mb121.gz 21.40MB SAIC Generic Sensor Format (GSF)
0156_20170408_164315_EX1704_MB-EM302.gsf.mb121.gz 28.25MB SAIC Generic Sensor Format (GSF)
0157_20170408_174313_EX1704_MB-EM302.gsf.mb121.gz 26.09MB SAIC Generic Sensor Format (GSF)
0158_20170408_183255_EX1704_MB-EM302.gsf.mb121.gz 13.09MB SAIC Generic Sensor Format (GSF)
0159_20170408_183658_EX1704_MB-EM302.gsf.mb121.gz 9.09MB SAIC Generic Sensor Format (GSF)
0160_20170408_190051_EX1704_MB-EM302.gsf.mb121.gz 15.08MB SAIC Generic Sensor Format (GSF)
0161_20170408_190600_EX1704_MB-EM302.gsf.mb121.gz 29.61MB SAIC Generic Sensor Format (GSF)
0162_20170408_200559_EX1704_MB-EM302.gsf.mb121.gz 38.39MB SAIC Generic Sensor Format (GSF)
0163_20170408_210602_EX1704_MB-EM302.gsf.mb121.gz 38.40MB SAIC Generic Sensor Format (GSF)
0164_20170408_220605_EX1704_MB-EM302.gsf.mb121.gz 38.45MB SAIC Generic Sensor Format (GSF)
0165_20170408_230605_EX1704_MB-EM302.gsf.mb121.gz 29.83MB SAIC Generic Sensor Format (GSF)
0166_20170409_000604_EX1704_MB-EM302.gsf.mb121.gz 14.15MB SAIC Generic Sensor Format (GSF)
0167_20170409_001217_EX1704_MB-EM302.gsf.mb121.gz 11.19MB SAIC Generic Sensor Format (GSF)
0168_20170409_002820_EX1704_MB-EM302.gsf.mb121.gz 22.27MB SAIC Generic Sensor Format (GSF)
0169_20170409_005953_EX1704_MB-EM302.gsf.mb121.gz 33.84MB SAIC Generic Sensor Format (GSF)
0170_20170409_015952_EX1704_MB-EM302.gsf.mb121.gz 38.44MB SAIC Generic Sensor Format (GSF)
0171_20170409_025953_EX1704_MB-EM302.gsf.mb121.gz 38.36MB SAIC Generic Sensor Format (GSF)
0172_20170409_035954_EX1704_MB-EM302.gsf.mb121.gz 28.49MB SAIC Generic Sensor Format (GSF)
0173_20170409_045951_EX1704_MB-EM302.gsf.mb121.gz 10.88MB SAIC Generic Sensor Format (GSF)
0174_20170409_050042_EX1704_MB-EM302.gsf.mb121.gz 8.15MB SAIC Generic Sensor Format (GSF)
0175_20170409_050700_EX1704_MB-EM302.gsf.mb121.gz 22.39MB SAIC Generic Sensor Format (GSF)
0176_20170409_054436_EX1704_MB-EM302.gsf.mb121.gz 34.38MB SAIC Generic Sensor Format (GSF)
0177_20170409_064435_EX1704_MB-EM302.gsf.mb121.gz 34.12MB SAIC Generic Sensor Format (GSF)
0178_20170409_074441_EX1704_MB-EM302.gsf.mb121.gz 22.12MB SAIC Generic Sensor Format (GSF)
0179_20170409_082030_EX1704_MB-EM302.gsf.mb121.gz 17.95MB SAIC Generic Sensor Format (GSF)
0180_20170409_082848_EX1704_MB-EM302.gsf.mb121.gz 29.98MB SAIC Generic Sensor Format (GSF)
0181_20170409_092850_EX1704_MB-EM302.gsf.mb121.gz 38.60MB SAIC Generic Sensor Format (GSF)
0182_20170409_102845_EX1704_MB-EM302.gsf.mb121.gz 39.42MB SAIC Generic Sensor Format (GSF)
0183_20170409_112844_EX1704_MB-EM302.gsf.mb121.gz 30.76MB SAIC Generic Sensor Format (GSF)
0184_20170409_122850_EX1704_MB-EM302.gsf.mb121.gz 12.47MB SAIC Generic Sensor Format (GSF)
0185_20170409_123226_EX1704_MB-EM302.gsf.mb121.gz 13.64MB SAIC Generic Sensor Format (GSF)
0186_20170409_124210_EX1704_MB-EM302.gsf.mb121.gz 25.68MB SAIC Generic Sensor Format (GSF)
0187_20170409_134216_EX1704_MB-EM302.gsf.mb121.gz 16.76MB SAIC Generic Sensor Format (GSF)
0188_20170409_140120_EX1704_MB-EM302.gsf.mb121.gz 13.77MB SAIC Generic Sensor Format (GSF)
0189_20170409_140435_EX1704_MB-EM302.gsf.mb121.gz 26.41MB SAIC Generic Sensor Format (GSF)
0190_20170409_150434_EX1704_MB-EM302.gsf.mb121.gz 27.81MB SAIC Generic Sensor Format (GSF)
0191_20170409_153317_EX1704_MB-EM302.gsf.mb121.gz 34.33MB SAIC Generic Sensor Format (GSF)
0192_20170409_162131_EX1704_MB-EM302.gsf.mb121.gz 18.23MB SAIC Generic Sensor Format (GSF)
0193_20170409_163615_EX1704_MB-EM302.gsf.mb121.gz 13.39MB SAIC Generic Sensor Format (GSF)
0194_20170409_164159_EX1704_MB-EM302.gsf.mb121.gz 29.22MB SAIC Generic Sensor Format (GSF)
0195_20170409_172807_EX1704_MB-EM302.gsf.mb121.gz 22.20MB SAIC Generic Sensor Format (GSF)
0196_20170409_174655_EX1704_MB-EM302.gsf.mb121.gz 29.15MB SAIC Generic Sensor Format (GSF)
0197_20170409_183648_EX1704_MB-EM302.gsf.mb121.gz 20.52MB SAIC Generic Sensor Format (GSF)
0198_20170409_185610_EX1704_MB-EM302.gsf.mb121.gz 11.92MB SAIC Generic Sensor Format (GSF)
0199_20170409_185839_EX1704_MB-EM302.gsf.mb121.gz 22.40MB SAIC Generic Sensor Format (GSF)
0200_20170409_194434_EX1704_MB-EM302.gsf.mb121.gz 17.94MB SAIC Generic Sensor Format (GSF)
0201_20170409_194714_EX1704_MB-EM302.gsf.mb121.gz 25.77MB SAIC Generic Sensor Format (GSF)
0202_20170409_204718_EX1704_MB-EM302.gsf.mb121.gz 18.85MB SAIC Generic Sensor Format (GSF)
0203_20170409_211015_EX1704_MB-EM302.gsf.mb121.gz 15.54MB SAIC Generic Sensor Format (GSF)
0204_20170409_211629_EX1704_MB-EM302.gsf.mb121.gz 34.08MB SAIC Generic Sensor Format (GSF)
0205_20170409_221631_EX1704_MB-EM302.gsf.mb121.gz 25.97MB SAIC Generic Sensor Format (GSF)
0206_20170409_224048_EX1704_MB-EM302.gsf.mb121.gz 7.82MB SAIC Generic Sensor Format (GSF)
0207_20170409_224410_EX1704_MB-EM302.gsf.mb121.gz 14.65MB SAIC Generic Sensor Format (GSF)
0208_20170409_225558_EX1704_MB-EM302.gsf.mb121.gz 32.14MB SAIC Generic Sensor Format (GSF)
0209_20170409_233716_EX1704_MB-EM302.gsf.mb121.gz 21.41MB SAIC Generic Sensor Format (GSF)
0210_20170409_235808_EX1704_MB-EM302.gsf.mb121.gz 7.35MB SAIC Generic Sensor Format (GSF)
0211_20170410_000056_EX1704_MB-EM302.gsf.mb121.gz 9.72MB SAIC Generic Sensor Format (GSF)
0212_20170410_032108_EX1704_MB-EM302.gsf.mb121.gz 32.44MB SAIC Generic Sensor Format (GSF)
0213_20170410_041816_EX1704_MB-EM302.gsf.mb121.gz 9.80MB SAIC Generic Sensor Format (GSF)
0214_20170410_042111_EX1704_MB-EM302.gsf.mb121.gz 30.72MB SAIC Generic Sensor Format (GSF)
0215_20170410_052020_EX1704_MB-EM302.gsf.mb121.gz 40.27MB SAIC Generic Sensor Format (GSF)
0216_20170410_062020_EX1704_MB-EM302.gsf.mb121.gz 40.11MB SAIC Generic Sensor Format (GSF)
0217_20170410_072019_EX1704_MB-EM302.gsf.mb121.gz 39.46MB SAIC Generic Sensor Format (GSF)
0218_20170410_082023_EX1704_MB-EM302.gsf.mb121.gz 34.30MB SAIC Generic Sensor Format (GSF)
0219_20170410_092026_EX1704_MB-EM302.gsf.mb121.gz 20.59MB SAIC Generic Sensor Format (GSF)
0220_20170410_095246_EX1704_MB-EM302.gsf.mb121.gz 15.79MB SAIC Generic Sensor Format (GSF)
0221_20170410_095549_EX1704_MB-EM302.gsf.mb121.gz 22.91MB SAIC Generic Sensor Format (GSF)
0222_20170410_105548_EX1704_MB-EM302.gsf.mb121.gz 16.77MB SAIC Generic Sensor Format (GSF)
0223_20170410_111421_EX1704_MB-EM302.gsf.mb121.gz 5.72MB SAIC Generic Sensor Format (GSF)
0224_20170410_112205_EX1704_MB-EM302.gsf.mb121.gz 11.38MB SAIC Generic Sensor Format (GSF)
0225_20170410_112342_EX1704_MB-EM302.gsf.mb121.gz 29.21MB SAIC Generic Sensor Format (GSF)
0226_20170410_122342_EX1704_MB-EM302.gsf.mb121.gz 29.52MB SAIC Generic Sensor Format (GSF)
0227_20170410_132338_EX1704_MB-EM302.gsf.mb121.gz 13.62MB SAIC Generic Sensor Format (GSF)
0228_20170410_132602_EX1704_MB-EM302.gsf.mb121.gz 16.79MB SAIC Generic Sensor Format (GSF)
0229_20170410_134616_EX1704_MB-EM302.gsf.mb121.gz 32.43MB SAIC Generic Sensor Format (GSF)
0230_20170410_144617_EX1704_MB-EM302.gsf.mb121.gz 29.67MB SAIC Generic Sensor Format (GSF)
0231_20170410_154624_EX1704_MB-EM302.gsf.mb121.gz 14.21MB SAIC Generic Sensor Format (GSF)
0232_20170410_155227_EX1704_MB-EM302.gsf.mb121.gz 6.83MB SAIC Generic Sensor Format (GSF)
0233_20170410_160903_EX1704_MB-EM302.gsf.mb121.gz 8.80MB SAIC Generic Sensor Format (GSF)
0234_20170410_161210_EX1704_MB-EM302.gsf.mb121.gz 20.62MB SAIC Generic Sensor Format (GSF)
0235_20170410_164412_EX1704_MB-EM302.gsf.mb121.gz 26.91MB SAIC Generic Sensor Format (GSF)
0236_20170410_174406_EX1704_MB-EM302.gsf.mb121.gz 16.33MB SAIC Generic Sensor Format (GSF)
0237_20170410_175549_EX1704_MB-EM302.gsf.mb121.gz 8.07MB SAIC Generic Sensor Format (GSF)
0238_20170410_181342_EX1704_MB-EM302.gsf.mb121.gz 13.29MB SAIC Generic Sensor Format (GSF)
0239_20170410_181604_EX1704_MB-EM302.gsf.mb121.gz 23.25MB SAIC Generic Sensor Format (GSF)
0240_20170410_191610_EX1704_MB-EM302.gsf.mb121.gz 16.42MB SAIC Generic Sensor Format (GSF)
0241_20170410_193338_EX1704_MB-EM302.gsf.mb121.gz 9.32MB SAIC Generic Sensor Format (GSF)
0242_20170410_193847_EX1704_MB-EM302.gsf.mb121.gz 26.17MB SAIC Generic Sensor Format (GSF)
0243_20170410_200432_EX1704_MB-EM302.gsf.mb121.gz 26.84MB SAIC Generic Sensor Format (GSF)
0244_20170410_210329_EX1704_MB-EM302.gsf.mb121.gz 14.91MB SAIC Generic Sensor Format (GSF)
0245_20170410_210621_EX1704_MB-EM302.gsf.mb121.gz 11.98MB SAIC Generic Sensor Format (GSF)
0246_20170410_213408_EX1704_MB-EM302.gsf.mb121.gz 15.49MB SAIC Generic Sensor Format (GSF)
0247_20170410_213807_EX1704_MB-EM302.gsf.mb121.gz 24.23MB SAIC Generic Sensor Format (GSF)
0248_20170410_223805_EX1704_MB-EM302.gsf.mb121.gz 17.61MB SAIC Generic Sensor Format (GSF)
0249_20170410_224707_EX1704_MB-EM302.gsf.mb121.gz 21.23MB SAIC Generic Sensor Format (GSF)
0250_20170410_230431_EX1704_MB-EM302.gsf.mb121.gz 32.87MB SAIC Generic Sensor Format (GSF)
0251_20170411_000436_EX1704_MB-EM302.gsf.mb121.gz 35.39MB SAIC Generic Sensor Format (GSF)
0252_20170411_010438_EX1704_MB-EM302.gsf.mb121.gz 21.32MB SAIC Generic Sensor Format (GSF)
0253_20170411_010756_EX1704_MB-EM302.gsf.mb121.gz 49.10MB SAIC Generic Sensor Format (GSF)
0254_20170411_020759_EX1704_MB-EM302.gsf.mb121.gz 60.05MB SAIC Generic Sensor Format (GSF)
0255_20170411_030754_EX1704_MB-EM302.gsf.mb121.gz 60.63MB SAIC Generic Sensor Format (GSF)
0256_20170411_040754_EX1704_MB-EM302.gsf.mb121.gz 20.14MB SAIC Generic Sensor Format (GSF)
0257_20170411_041403_EX1704_MB-EM302.gsf.mb121.gz 26.41MB SAIC Generic Sensor Format (GSF)
0258_20170411_043611_EX1704_MB-EM302.gsf.mb121.gz 51.01MB SAIC Generic Sensor Format (GSF)
0259_20170411_053611_EX1704_MB-EM302.gsf.mb121.gz 57.89MB SAIC Generic Sensor Format (GSF)
0260_20170411_063617_EX1704_MB-EM302.gsf.mb121.gz 48.87MB SAIC Generic Sensor Format (GSF)
0261_20170411_073610_EX1704_MB-EM302.gsf.mb121.gz 40.06MB SAIC Generic Sensor Format (GSF)
0262_20170411_083616_EX1704_MB-EM302.gsf.mb121.gz 38.95MB SAIC Generic Sensor Format (GSF)
0263_20170411_093610_EX1704_MB-EM302.gsf.mb121.gz 38.23MB SAIC Generic Sensor Format (GSF)
0264_20170411_103615_EX1704_MB-EM302.gsf.mb121.gz 30.90MB SAIC Generic Sensor Format (GSF)
0265_20170411_113029_EX1704_MB-EM302.gsf.mb121.gz 25.27MB SAIC Generic Sensor Format (GSF)
0266_20170411_115256_EX1704_MB-EM302.gsf.mb121.gz 32.32MB SAIC Generic Sensor Format (GSF)
0267_20170411_125252_EX1704_MB-EM302.gsf.mb121.gz 38.87MB SAIC Generic Sensor Format (GSF)
0268_20170411_135256_EX1704_MB-EM302.gsf.mb121.gz 38.80MB SAIC Generic Sensor Format (GSF)
0269_20170411_145249_EX1704_MB-EM302.gsf.mb121.gz 39.63MB SAIC Generic Sensor Format (GSF)
0270_20170411_155256_EX1704_MB-EM302.gsf.mb121.gz 32.30MB SAIC Generic Sensor Format (GSF)
0271_20170411_165251_EX1704_MB-EM302.gsf.mb121.gz 21.97MB SAIC Generic Sensor Format (GSF)
0272_20170411_170022_EX1704_MB-EM302.gsf.mb121.gz 42.20MB SAIC Generic Sensor Format (GSF)
0273_20170411_180018_EX1704_MB-EM302.gsf.mb121.gz 25.76MB SAIC Generic Sensor Format (GSF)
0274_20170411_184359_EX1704_MB-EM302.gsf.mb121.gz 11.28MB SAIC Generic Sensor Format (GSF)
0275_20170411_184750_EX1704_MB-EM302.gsf.mb121.gz 7.67MB SAIC Generic Sensor Format (GSF)
0276_20170411_190602_EX1704_MB-EM302.gsf.mb121.gz 14.12MB SAIC Generic Sensor Format (GSF)
0277_20170411_191044_EX1704_MB-EM302.gsf.mb121.gz 31.70MB SAIC Generic Sensor Format (GSF)
0278_20170411_201045_EX1704_MB-EM302.gsf.mb121.gz 40.51MB SAIC Generic Sensor Format (GSF)
0279_20170411_211051_EX1704_MB-EM302.gsf.mb121.gz 39.80MB SAIC Generic Sensor Format (GSF)
0280_20170411_221050_EX1704_MB-EM302.gsf.mb121.gz 39.43MB SAIC Generic Sensor Format (GSF)
0281_20170411_231050_EX1704_MB-EM302.gsf.mb121.gz 30.22MB SAIC Generic Sensor Format (GSF)
0282_20170412_001045_EX1704_MB-EM302.gsf.mb121.gz 20.49MB SAIC Generic Sensor Format (GSF)
0283_20170412_001441_EX1704_MB-EM302.gsf.mb121.gz 26.69MB SAIC Generic Sensor Format (GSF)
0284_20170412_011440_EX1704_MB-EM302.gsf.mb121.gz 26.99MB SAIC Generic Sensor Format (GSF)
0285_20170412_015709_EX1704_MB-EM302.gsf.mb121.gz 23.89MB SAIC Generic Sensor Format (GSF)
0286_20170412_022018_EX1704_MB-EM302.gsf.mb121.gz 32.17MB SAIC Generic Sensor Format (GSF)
0287_20170412_032017_EX1704_MB-EM302.gsf.mb121.gz 38.27MB SAIC Generic Sensor Format (GSF)
0288_20170412_042021_EX1704_MB-EM302.gsf.mb121.gz 38.38MB SAIC Generic Sensor Format (GSF)
0289_20170412_052019_EX1704_MB-EM302.gsf.mb121.gz 38.78MB SAIC Generic Sensor Format (GSF)
0290_20170412_062021_EX1704_MB-EM302.gsf.mb121.gz 39.21MB SAIC Generic Sensor Format (GSF)
0291_20170412_072019_EX1704_MB-EM302.gsf.mb121.gz 40.05MB SAIC Generic Sensor Format (GSF)
0292_20170412_082021_EX1704_MB-EM302.gsf.mb121.gz 32.69MB SAIC Generic Sensor Format (GSF)
0293_20170412_092018_EX1704_MB-EM302.gsf.mb121.gz 18.44MB SAIC Generic Sensor Format (GSF)
0294_20170412_093428_EX1704_MB-EM302.gsf.mb121.gz 20.26MB SAIC Generic Sensor Format (GSF)
0295_20170412_095923_EX1704_MB-EM302.gsf.mb121.gz 33.80MB SAIC Generic Sensor Format (GSF)
0296_20170412_105926_EX1704_MB-EM302.gsf.mb121.gz 39.85MB SAIC Generic Sensor Format (GSF)
0297_20170412_115925_EX1704_MB-EM302.gsf.mb121.gz 39.35MB SAIC Generic Sensor Format (GSF)
0298_20170412_125923_EX1704_MB-EM302.gsf.mb121.gz 38.97MB SAIC Generic Sensor Format (GSF)
0299_20170412_135928_EX1704_MB-EM302.gsf.mb121.gz 32.25MB SAIC Generic Sensor Format (GSF)
0300_20170412_145931_EX1704_MB-EM302.gsf.mb121.gz 19.35MB SAIC Generic Sensor Format (GSF)
0301_20170412_151948_EX1704_MB-EM302.gsf.mb121.gz 19.46MB SAIC Generic Sensor Format (GSF)
0302_20170412_154055_EX1704_MB-EM302.gsf.mb121.gz 23.30MB SAIC Generic Sensor Format (GSF)
0303_20170412_164058_EX1704_MB-EM302.gsf.mb121.gz 21.08MB SAIC Generic Sensor Format (GSF)
0304_20170412_164621_EX1704_MB-EM302.gsf.mb121.gz 30.29MB SAIC Generic Sensor Format (GSF)
0305_20170412_174622_EX1704_MB-EM302.gsf.mb121.gz 39.18MB SAIC Generic Sensor Format (GSF)
0306_20170412_184622_EX1704_MB-EM302.gsf.mb121.gz 39.30MB SAIC Generic Sensor Format (GSF)
0307_20170412_194620_EX1704_MB-EM302.gsf.mb121.gz 30.79MB SAIC Generic Sensor Format (GSF)
0308_20170412_204622_EX1704_MB-EM302.gsf.mb121.gz 15.13MB SAIC Generic Sensor Format (GSF)
0309_20170412_205431_EX1704_MB-EM302.gsf.mb121.gz 7.98MB SAIC Generic Sensor Format (GSF)
0310_20170412_211156_EX1704_MB-EM302.gsf.mb121.gz 14.07MB SAIC Generic Sensor Format (GSF)
0311_20170412_211655_EX1704_MB-EM302.gsf.mb121.gz 30.74MB SAIC Generic Sensor Format (GSF)
0312_20170412_221653_EX1704_MB-EM302.gsf.mb121.gz 39.26MB SAIC Generic Sensor Format (GSF)
0313_20170412_231656_EX1704_MB-EM302.gsf.mb121.gz 39.40MB SAIC Generic Sensor Format (GSF)
0314_20170413_001650_EX1704_MB-EM302.gsf.mb121.gz 38.54MB SAIC Generic Sensor Format (GSF)
0315_20170413_011651_EX1704_MB-EM302.gsf.mb121.gz 30.48MB SAIC Generic Sensor Format (GSF)
0316_20170413_021207_EX1704_MB-EM302.gsf.mb121.gz 25.23MB SAIC Generic Sensor Format (GSF)
0317_20170413_023359_EX1704_MB-EM302.gsf.mb121.gz 32.34MB SAIC Generic Sensor Format (GSF)
0318_20170413_033355_EX1704_MB-EM302.gsf.mb121.gz 38.75MB SAIC Generic Sensor Format (GSF)
0319_20170413_043351_EX1704_MB-EM302.gsf.mb121.gz 38.69MB SAIC Generic Sensor Format (GSF)
0320_20170413_053359_EX1704_MB-EM302.gsf.mb121.gz 36.95MB SAIC Generic Sensor Format (GSF)
0321_20170413_063353_EX1704_MB-EM302.gsf.mb121.gz 29.96MB SAIC Generic Sensor Format (GSF)
0322_20170413_072329_EX1704_MB-EM302.gsf.mb121.gz 26.15MB SAIC Generic Sensor Format (GSF)
0323_20170413_075000_EX1704_MB-EM302.gsf.mb121.gz 33.34MB SAIC Generic Sensor Format (GSF)
0324_20170413_084959_EX1704_MB-EM302.gsf.mb121.gz 39.06MB SAIC Generic Sensor Format (GSF)
0325_20170413_094959_EX1704_MB-EM302.gsf.mb121.gz 39.22MB SAIC Generic Sensor Format (GSF)
0326_20170413_105000_EX1704_MB-EM302.gsf.mb121.gz 31.87MB SAIC Generic Sensor Format (GSF)
0327_20170413_114957_EX1704_MB-EM302.gsf.mb121.gz 24.09MB SAIC Generic Sensor Format (GSF)
0328_20170413_120459_EX1704_MB-EM302.gsf.mb121.gz 23.74MB SAIC Generic Sensor Format (GSF)
0329_20170413_130455_EX1704_MB-EM302.gsf.mb121.gz 14.20MB SAIC Generic Sensor Format (GSF)
0330_20170413_131539_EX1704_MB-EM302.gsf.mb121.gz 9.44MB SAIC Generic Sensor Format (GSF)
0331_20170413_132233_EX1704_MB-EM302.gsf.mb121.gz 15.50MB SAIC Generic Sensor Format (GSF)
0332_20170413_135632_EX1704_MB-EM302.gsf.mb121.gz 21.90MB SAIC Generic Sensor Format (GSF)
0333_20170413_141727_EX1704_MB-EM302.gsf.mb121.gz 24.57MB SAIC Generic Sensor Format (GSF)
0334_20170413_151726_EX1704_MB-EM302.gsf.mb121.gz 19.67MB SAIC Generic Sensor Format (GSF)
0335_20170413_152751_EX1704_MB-EM302.gsf.mb121.gz 16.11MB SAIC Generic Sensor Format (GSF)
0336_20170413_160917_EX1704_MB-EM302.gsf.mb121.gz 12.15MB SAIC Generic Sensor Format (GSF)
0337_20170413_161621_EX1704_MB-EM302.gsf.mb121.gz 17.22MB SAIC Generic Sensor Format (GSF)
0338_20170413_163627_EX1704_MB-EM302.gsf.mb121.gz 26.65MB SAIC Generic Sensor Format (GSF)
0339_20170413_173622_EX1704_MB-EM302.gsf.mb121.gz 27.25MB SAIC Generic Sensor Format (GSF)
0340_20170413_180117_EX1704_MB-EM302.gsf.mb121.gz 28.34MB SAIC Generic Sensor Format (GSF)
0341_20170413_190129_EX1704_MB-EM302.gsf.mb121.gz 26.83MB SAIC Generic Sensor Format (GSF)
0342_20170413_193937_EX1704_MB-EM302.gsf.mb121.gz 16.59MB SAIC Generic Sensor Format (GSF)
0343_20170413_201123_EX1704_MB-EM302.gsf.mb121.gz 15.76MB SAIC Generic Sensor Format (GSF)
0344_20170413_202642_EX1704_MB-EM302.gsf.mb121.gz 14.66MB SAIC Generic Sensor Format (GSF)
0345_20170413_204011_EX1704_MB-EM302.gsf.mb121.gz 34.18MB SAIC Generic Sensor Format (GSF)
0346_20170413_212825_EX1704_MB-EM302.gsf.mb121.gz 14.91MB SAIC Generic Sensor Format (GSF)
0347_20170413_213933_EX1704_MB-EM302.gsf.mb121.gz 10.07MB SAIC Generic Sensor Format (GSF)
0348_20170413_214404_EX1704_MB-EM302.gsf.mb121.gz 21.96MB SAIC Generic Sensor Format (GSF)
0349_20170413_222202_EX1704_MB-EM302.gsf.mb121.gz 15.89MB SAIC Generic Sensor Format (GSF)
0350_20170413_222642_EX1704_MB-EM302.gsf.mb121.gz 17.36MB SAIC Generic Sensor Format (GSF)
0351_20170413_231232_EX1704_MB-EM302.gsf.mb121.gz 12.11MB SAIC Generic Sensor Format (GSF)
0352_20170413_231522_EX1704_MB-EM302.gsf.mb121.gz 17.76MB SAIC Generic Sensor Format (GSF)
0353_20170413_233916_EX1704_MB-EM302.gsf.mb121.gz 24.37MB SAIC Generic Sensor Format (GSF)
0354_20170414_003921_EX1704_MB-EM302.gsf.mb121.gz 12.33MB SAIC Generic Sensor Format (GSF)
0355_20170414_004542_EX1704_MB-EM302.gsf.mb121.gz 11.99MB SAIC Generic Sensor Format (GSF)
0356_20170414_004946_EX1704_MB-EM302.gsf.mb121.gz 29.88MB SAIC Generic Sensor Format (GSF)
0357_20170414_014948_EX1704_MB-EM302.gsf.mb121.gz 31.09MB SAIC Generic Sensor Format (GSF)
0358_20170414_024946_EX1704_MB-EM302.gsf.mb121.gz 18.09MB SAIC Generic Sensor Format (GSF)
0359_20170414_030417_EX1704_MB-EM302.gsf.mb121.gz 19.55MB SAIC Generic Sensor Format (GSF)
0360_20170414_032841_EX1704_MB-EM302.gsf.mb121.gz 32.64MB SAIC Generic Sensor Format (GSF)
0361_20170414_042836_EX1704_MB-EM302.gsf.mb121.gz 31.54MB SAIC Generic Sensor Format (GSF)
0362_20170414_052839_EX1704_MB-EM302.gsf.mb121.gz 17.01MB SAIC Generic Sensor Format (GSF)
0363_20170414_053949_EX1704_MB-EM302.gsf.mb121.gz 18.85MB SAIC Generic Sensor Format (GSF)
0364_20170414_060256_EX1704_MB-EM302.gsf.mb121.gz 33.91MB SAIC Generic Sensor Format (GSF)
0365_20170414_070258_EX1704_MB-EM302.gsf.mb121.gz 31.36MB SAIC Generic Sensor Format (GSF)
0366_20170414_080253_EX1704_MB-EM302.gsf.mb121.gz 21.35MB SAIC Generic Sensor Format (GSF)
0367_20170414_081514_EX1704_MB-EM302.gsf.mb121.gz 27.11MB SAIC Generic Sensor Format (GSF)
0368_20170414_090316_EX1704_MB-EM302.gsf.mb121.gz 37.90MB SAIC Generic Sensor Format (GSF)
0369_20170414_100320_EX1704_MB-EM302.gsf.mb121.gz 33.17MB SAIC Generic Sensor Format (GSF)
0370_20170414_110323_EX1704_MB-EM302.gsf.mb121.gz 16.92MB SAIC Generic Sensor Format (GSF)
0371_20170414_112430_EX1704_MB-EM302.gsf.mb121.gz 6.97MB SAIC Generic Sensor Format (GSF)
0372_20170414_112714_EX1704_MB-EM302.gsf.mb121.gz 15.52MB SAIC Generic Sensor Format (GSF)
0373_20170414_114403_EX1704_MB-EM302.gsf.mb121.gz 31.74MB SAIC Generic Sensor Format (GSF)
0374_20170414_124400_EX1704_MB-EM302.gsf.mb121.gz 33.72MB SAIC Generic Sensor Format (GSF)
0375_20170414_134356_EX1704_MB-EM302.gsf.mb121.gz 23.54MB SAIC Generic Sensor Format (GSF)
0376_20170414_141152_EX1704_MB-EM302.gsf.mb121.gz 15.86MB SAIC Generic Sensor Format (GSF)
0377_20170414_144345_EX1704_MB-EM302.gsf.mb121.gz 16.84MB SAIC Generic Sensor Format (GSF)
0378_20170414_145014_EX1704_MB-EM302.gsf.mb121.gz 28.34MB SAIC Generic Sensor Format (GSF)
0379_20170414_155017_EX1704_MB-EM302.gsf.mb121.gz 34.58MB SAIC Generic Sensor Format (GSF)
0380_20170414_163746_EX1704_MB-EM302.gsf.mb121.gz 29.77MB SAIC Generic Sensor Format (GSF)
0381_20170414_173740_EX1704_MB-EM302.gsf.mb121.gz 17.53MB SAIC Generic Sensor Format (GSF)
0382_20170414_175500_EX1704_MB-EM302.gsf.mb121.gz 7.86MB SAIC Generic Sensor Format (GSF)
0383_20170414_180922_EX1704_MB-EM302.gsf.mb121.gz 12.64MB SAIC Generic Sensor Format (GSF)
0384_20170414_181209_EX1704_MB-EM302.gsf.mb121.gz 29.27MB SAIC Generic Sensor Format (GSF)
0385_20170414_191057_EX1704_MB-EM302.gsf.mb121.gz 38.56MB SAIC Generic Sensor Format (GSF)
0386_20170414_201049_EX1704_MB-EM302.gsf.mb121.gz 31.82MB SAIC Generic Sensor Format (GSF)
0387_20170414_211057_EX1704_MB-EM302.gsf.mb121.gz 18.89MB SAIC Generic Sensor Format (GSF)
0388_20170414_212813_EX1704_MB-EM302.gsf.mb121.gz 15.98MB SAIC Generic Sensor Format (GSF)
0389_20170414_215050_EX1704_MB-EM302.gsf.mb121.gz 21.13MB SAIC Generic Sensor Format (GSF)
0390_20170414_222918_EX1704_MB-EM302.gsf.mb121.gz 26.24MB SAIC Generic Sensor Format (GSF)
0391_20170414_230231_EX1704_MB-EM302.gsf.mb121.gz 33.87MB SAIC Generic Sensor Format (GSF)
0392_20170415_000234_EX1704_MB-EM302.gsf.mb121.gz 31.32MB SAIC Generic Sensor Format (GSF)
0393_20170415_010227_EX1704_MB-EM302.gsf.mb121.gz 24.56MB SAIC Generic Sensor Format (GSF)
0394_20170415_011925_EX1704_MB-EM302.gsf.mb121.gz 31.29MB SAIC Generic Sensor Format (GSF)
0395_20170415_021919_EX1704_MB-EM302.gsf.mb121.gz 38.14MB SAIC Generic Sensor Format (GSF)
0396_20170415_031924_EX1704_MB-EM302.gsf.mb121.gz 37.93MB SAIC Generic Sensor Format (GSF)
0397_20170415_041919_EX1704_MB-EM302.gsf.mb121.gz 31.04MB SAIC Generic Sensor Format (GSF)
0398_20170415_051803_EX1704_MB-EM302.gsf.mb121.gz 25.45MB SAIC Generic Sensor Format (GSF)
0399_20170415_053842_EX1704_MB-EM302.gsf.mb121.gz 31.56MB SAIC Generic Sensor Format (GSF)
0400_20170415_063834_EX1704_MB-EM302.gsf.mb121.gz 33.15MB SAIC Generic Sensor Format (GSF)
0401_20170415_073835_EX1704_MB-EM302.gsf.mb121.gz 23.03MB SAIC Generic Sensor Format (GSF)
0402_20170415_080800_EX1704_MB-EM302.gsf.mb121.gz 22.48MB SAIC Generic Sensor Format (GSF)
0403_20170415_083343_EX1704_MB-EM302.gsf.mb121.gz 32.70MB SAIC Generic Sensor Format (GSF)
0404_20170415_093342_EX1704_MB-EM302.gsf.mb121.gz 33.73MB SAIC Generic Sensor Format (GSF)
0405_20170415_103339_EX1704_MB-EM302.gsf.mb121.gz 23.28MB SAIC Generic Sensor Format (GSF)
0406_20170415_110535_EX1704_MB-EM302.gsf.mb121.gz 21.69MB SAIC Generic Sensor Format (GSF)
0407_20170415_112744_EX1704_MB-EM302.gsf.mb121.gz 32.26MB SAIC Generic Sensor Format (GSF)
0408_20170415_122747_EX1704_MB-EM302.gsf.mb121.gz 33.24MB SAIC Generic Sensor Format (GSF)
0409_20170415_132746_EX1704_MB-EM302.gsf.mb121.gz 19.27MB SAIC Generic Sensor Format (GSF)
0410_20170415_135640_EX1704_MB-EM302.gsf.mb121.gz 15.20MB SAIC Generic Sensor Format (GSF)
0411_20170415_135940_EX1704_MB-EM302.gsf.mb121.gz 29.09MB SAIC Generic Sensor Format (GSF)
0412_20170415_145936_EX1704_MB-EM302.gsf.mb121.gz 35.02MB SAIC Generic Sensor Format (GSF)
0413_20170415_155940_EX1704_MB-EM302.gsf.mb121.gz 31.91MB SAIC Generic Sensor Format (GSF)
0414_20170415_163938_EX1704_MB-EM302.gsf.mb121.gz 35.00MB SAIC Generic Sensor Format (GSF)
0415_20170415_173929_EX1704_MB-EM302.gsf.mb121.gz 38.31MB SAIC Generic Sensor Format (GSF)
0416_20170415_183925_EX1704_MB-EM302.gsf.mb121.gz 38.00MB SAIC Generic Sensor Format (GSF)
0417_20170415_193922_EX1704_MB-EM302.gsf.mb121.gz 28.30MB SAIC Generic Sensor Format (GSF)
0418_20170415_203722_EX1704_MB-EM302.gsf.mb121.gz 13.93MB SAIC Generic Sensor Format (GSF)
0419_20170415_203945_EX1704_MB-EM302.gsf.mb121.gz 17.83MB SAIC Generic Sensor Format (GSF)
0420_20170415_210356_EX1704_MB-EM302.gsf.mb121.gz 31.00MB SAIC Generic Sensor Format (GSF)
0421_20170415_220402_EX1704_MB-EM302.gsf.mb121.gz 25.96MB SAIC Generic Sensor Format (GSF)
0422_20170415_225351_EX1704_MB-EM302.gsf.mb121.gz 18.96MB SAIC Generic Sensor Format (GSF)
0423_20170415_225808_EX1704_MB-EM302.gsf.mb121.gz 20.26MB SAIC Generic Sensor Format (GSF)
0424_20170415_235815_EX1704_MB-EM302.gsf.mb121.gz 20.58MB SAIC Generic Sensor Format (GSF)
0425_20170416_000223_EX1704_MB-EM302.gsf.mb121.gz 29.29MB SAIC Generic Sensor Format (GSF)
0426_20170416_010222_EX1704_MB-EM302.gsf.mb121.gz 29.79MB SAIC Generic Sensor Format (GSF)
0427_20170416_020219_EX1704_MB-EM302.gsf.mb121.gz 21.94MB SAIC Generic Sensor Format (GSF)
0428_20170416_021109_EX1704_MB-EM302.gsf.mb121.gz 29.81MB SAIC Generic Sensor Format (GSF)
0429_20170416_031101_EX1704_MB-EM302.gsf.mb121.gz 37.97MB SAIC Generic Sensor Format (GSF)
0430_20170416_041103_EX1704_MB-EM302.gsf.mb121.gz 38.19MB SAIC Generic Sensor Format (GSF)
0431_20170416_051108_EX1704_MB-EM302.gsf.mb121.gz 38.17MB SAIC Generic Sensor Format (GSF)
0432_20170416_061107_EX1704_MB-EM302.gsf.mb121.gz 28.98MB SAIC Generic Sensor Format (GSF)
0433_20170416_071103_EX1704_MB-EM302.gsf.mb121.gz 20.15MB SAIC Generic Sensor Format (GSF)
0434_20170416_071406_EX1704_MB-EM302.gsf.mb121.gz 28.06MB SAIC Generic Sensor Format (GSF)
0435_20170416_081405_EX1704_MB-EM302.gsf.mb121.gz 37.61MB SAIC Generic Sensor Format (GSF)
0436_20170416_091405_EX1704_MB-EM302.gsf.mb121.gz 38.07MB SAIC Generic Sensor Format (GSF)
0437_20170416_101406_EX1704_MB-EM302.gsf.mb121.gz 37.86MB SAIC Generic Sensor Format (GSF)
0438_20170416_111406_EX1704_MB-EM302.gsf.mb121.gz 38.07MB SAIC Generic Sensor Format (GSF)
0439_20170416_121407_EX1704_MB-EM302.gsf.mb121.gz 37.85MB SAIC Generic Sensor Format (GSF)
0440_20170416_131405_EX1704_MB-EM302.gsf.mb121.gz 31.43MB SAIC Generic Sensor Format (GSF)
0441_20170416_141405_EX1704_MB-EM302.gsf.mb121.gz 24.92MB SAIC Generic Sensor Format (GSF)
0442_20170416_143223_EX1704_MB-EM302.gsf.mb121.gz 31.18MB SAIC Generic Sensor Format (GSF)
0443_20170416_153220_EX1704_MB-EM302.gsf.mb121.gz 32.03MB SAIC Generic Sensor Format (GSF)
0444_20170416_163223_EX1704_MB-EM302.gsf.mb121.gz 17.55MB SAIC Generic Sensor Format (GSF)
0445_20170416_165527_EX1704_MB-EM302.gsf.mb121.gz 8.36MB SAIC Generic Sensor Format (GSF)
0446_20170416_165919_EX1704_MB-EM302.gsf.mb121.gz 16.88MB SAIC Generic Sensor Format (GSF)
0447_20170416_172056_EX1704_MB-EM302.gsf.mb121.gz 29.38MB SAIC Generic Sensor Format (GSF)
0448_20170416_182050_EX1704_MB-EM302.gsf.mb121.gz 24.41MB SAIC Generic Sensor Format (GSF)
0449_20170416_190550_EX1704_MB-EM302.gsf.mb121.gz 10.34MB SAIC Generic Sensor Format (GSF)
0450_20170416_190746_EX1704_MB-EM302.gsf.mb121.gz 5.61MB SAIC Generic Sensor Format (GSF)
0451_20170416_192326_EX1704_MB-EM302.gsf.mb121.gz 12.88MB SAIC Generic Sensor Format (GSF)
0452_20170416_192540_EX1704_MB-EM302.gsf.mb121.gz 29.48MB SAIC Generic Sensor Format (GSF)
0453_20170416_202540_EX1704_MB-EM302.gsf.mb121.gz 22.33MB SAIC Generic Sensor Format (GSF)
0454_20170416_210212_EX1704_MB-EM302.gsf.mb121.gz 9.67MB SAIC Generic Sensor Format (GSF)
0455_20170416_210425_EX1704_MB-EM302.gsf.mb121.gz 16.04MB SAIC Generic Sensor Format (GSF)
0456_20170416_212343_EX1704_MB-EM302.gsf.mb121.gz 35.50MB SAIC Generic Sensor Format (GSF)
0457_20170416_222337_EX1704_MB-EM302.gsf.mb121.gz 33.92MB SAIC Generic Sensor Format (GSF)
0458_20170416_232343_EX1704_MB-EM302.gsf.mb121.gz 10.78MB SAIC Generic Sensor Format (GSF)
0459_20170416_232536_EX1704_MB-EM302.gsf.mb121.gz 3.67MB SAIC Generic Sensor Format (GSF)
0460_20170416_232901_EX1704_MB-EM302.gsf.mb121.gz 5.45MB SAIC Generic Sensor Format (GSF)
0461_20170416_234313_EX1704_MB-EM302.gsf.mb121.gz 5.60MB SAIC Generic Sensor Format (GSF)
0462_20170416_234634_EX1704_MB-EM302.gsf.mb121.gz 14.53MB SAIC Generic Sensor Format (GSF)
0463_20170417_000046_EX1704_MB-EM302.gsf.mb121.gz 27.54MB SAIC Generic Sensor Format (GSF)
0464_20170417_010036_EX1704_MB-EM302.gsf.mb121.gz 23.56MB SAIC Generic Sensor Format (GSF)
0465_20170417_014210_EX1704_MB-EM302.gsf.mb121.gz 17.74MB SAIC Generic Sensor Format (GSF)
0466_20170417_014645_EX1704_MB-EM302.gsf.mb121.gz 29.49MB SAIC Generic Sensor Format (GSF)
0467_20170417_024639_EX1704_MB-EM302.gsf.mb121.gz 38.13MB SAIC Generic Sensor Format (GSF)
0468_20170417_034642_EX1704_MB-EM302.gsf.mb121.gz 38.13MB SAIC Generic Sensor Format (GSF)
0469_20170417_044644_EX1704_MB-EM302.gsf.mb121.gz 38.04MB SAIC Generic Sensor Format (GSF)
0470_20170417_054639_EX1704_MB-EM302.gsf.mb121.gz 38.15MB SAIC Generic Sensor Format (GSF)
0471_20170417_064640_EX1704_MB-EM302.gsf.mb121.gz 36.87MB SAIC Generic Sensor Format (GSF)
0472_20170417_074641_EX1704_MB-EM302.gsf.mb121.gz 26.76MB SAIC Generic Sensor Format (GSF)
0473_20170417_083926_EX1704_MB-EM302.gsf.mb121.gz 19.27MB SAIC Generic Sensor Format (GSF)
0474_20170417_084310_EX1704_MB-EM302.gsf.mb121.gz 23.18MB SAIC Generic Sensor Format (GSF)
0475_20170417_094315_EX1704_MB-EM302.gsf.mb121.gz 20.05MB SAIC Generic Sensor Format (GSF)
0476_20170417_100521_EX1704_MB-EM302.gsf.mb121.gz 19.90MB SAIC Generic Sensor Format (GSF)
0477_20170417_102658_EX1704_MB-EM302.gsf.mb121.gz 26.23MB SAIC Generic Sensor Format (GSF)
0478_20170417_112656_EX1704_MB-EM302.gsf.mb121.gz 19.52MB SAIC Generic Sensor Format (GSF)
0479_20170417_114756_EX1704_MB-EM302.gsf.mb121.gz 19.34MB SAIC Generic Sensor Format (GSF)
0480_20170417_120833_EX1704_MB-EM302.gsf.mb121.gz 30.15MB SAIC Generic Sensor Format (GSF)
0481_20170417_130842_EX1704_MB-EM302.gsf.mb121.gz 19.92MB SAIC Generic Sensor Format (GSF)
0482_20170417_133039_EX1704_MB-EM302.gsf.mb121.gz 19.37MB SAIC Generic Sensor Format (GSF)
0483_20170417_135037_EX1704_MB-EM302.gsf.mb121.gz 26.12MB SAIC Generic Sensor Format (GSF)
0484_20170417_145040_EX1704_MB-EM302.gsf.mb121.gz 21.43MB SAIC Generic Sensor Format (GSF)
0485_20170417_151520_EX1704_MB-EM302.gsf.mb121.gz 20.93MB SAIC Generic Sensor Format (GSF)
0486_20170417_153923_EX1704_MB-EM302.gsf.mb121.gz 22.77MB SAIC Generic Sensor Format (GSF)
0487_20170417_163930_EX1704_MB-EM302.gsf.mb121.gz 15.07MB SAIC Generic Sensor Format (GSF)
0488_20170417_164255_EX1704_MB-EM302.gsf.mb121.gz 18.65MB SAIC Generic Sensor Format (GSF)
0489_20170417_171001_EX1704_MB-EM302.gsf.mb121.gz 32.76MB SAIC Generic Sensor Format (GSF)
0490_20170417_180959_EX1704_MB-EM302.gsf.mb121.gz 37.69MB SAIC Generic Sensor Format (GSF)
0491_20170417_190956_EX1704_MB-EM302.gsf.mb121.gz 38.07MB SAIC Generic Sensor Format (GSF)
0492_20170417_200958_EX1704_MB-EM302.gsf.mb121.gz 28.80MB SAIC Generic Sensor Format (GSF)
0493_20170417_210956_EX1704_MB-EM302.gsf.mb121.gz 19.58MB SAIC Generic Sensor Format (GSF)
0494_20170417_211103_EX1704_MB-EM302.gsf.mb121.gz 26.50MB SAIC Generic Sensor Format (GSF)
0495_20170417_221105_EX1704_MB-EM302.gsf.mb121.gz 33.67MB SAIC Generic Sensor Format (GSF)
0496_20170417_225620_EX1704_MB-EM302.gsf.mb121.gz 26.94MB SAIC Generic Sensor Format (GSF)
0497_20170417_235621_EX1704_MB-EM302.gsf.mb121.gz 21.23MB SAIC Generic Sensor Format (GSF)
0498_20170418_000238_EX1704_MB-EM302.gsf.mb121.gz 29.25MB SAIC Generic Sensor Format (GSF)
0499_20170418_010234_EX1704_MB-EM302.gsf.mb121.gz 38.05MB SAIC Generic Sensor Format (GSF)
0500_20170418_020231_EX1704_MB-EM302.gsf.mb121.gz 37.91MB SAIC Generic Sensor Format (GSF)
0501_20170418_030237_EX1704_MB-EM302.gsf.mb121.gz 32.38MB SAIC Generic Sensor Format (GSF)
0502_20170418_040234_EX1704_MB-EM302.gsf.mb121.gz 26.81MB SAIC Generic Sensor Format (GSF)
0503_20170418_042652_EX1704_MB-EM302.gsf.mb121.gz 29.79MB SAIC Generic Sensor Format (GSF)
0504_20170418_052655_EX1704_MB-EM302.gsf.mb121.gz 26.47MB SAIC Generic Sensor Format (GSF)
0505_20170418_060900_EX1704_MB-EM302.gsf.mb121.gz 23.26MB SAIC Generic Sensor Format (GSF)
0506_20170418_063024_EX1704_MB-EM302.gsf.mb121.gz 30.31MB SAIC Generic Sensor Format (GSF)
0507_20170418_073028_EX1704_MB-EM302.gsf.mb121.gz 27.43MB SAIC Generic Sensor Format (GSF)
0508_20170418_081619_EX1704_MB-EM302.gsf.mb121.gz 13.28MB SAIC Generic Sensor Format (GSF)
0509_20170418_083358_EX1704_MB-EM302.gsf.mb121.gz 13.16MB SAIC Generic Sensor Format (GSF)
0510_20170418_083611_EX1704_MB-EM302.gsf.mb121.gz 27.56MB SAIC Generic Sensor Format (GSF)
0511_20170418_093612_EX1704_MB-EM302.gsf.mb121.gz 28.21MB SAIC Generic Sensor Format (GSF)
0512_20170418_102402_EX1704_MB-EM302.gsf.mb121.gz 24.57MB SAIC Generic Sensor Format (GSF)
0513_20170418_104730_EX1704_MB-EM302.gsf.mb121.gz 29.32MB SAIC Generic Sensor Format (GSF)
0514_20170418_114735_EX1704_MB-EM302.gsf.mb121.gz 25.98MB SAIC Generic Sensor Format (GSF)
0515_20170418_122907_EX1704_MB-EM302.gsf.mb121.gz 23.17MB SAIC Generic Sensor Format (GSF)
0516_20170418_125056_EX1704_MB-EM302.gsf.mb121.gz 28.27MB SAIC Generic Sensor Format (GSF)
0517_20170418_135054_EX1704_MB-EM302.gsf.mb121.gz 24.96MB SAIC Generic Sensor Format (GSF)
0518_20170418_142738_EX1704_MB-EM302.gsf.mb121.gz 22.99MB SAIC Generic Sensor Format (GSF)
0519_20170418_145124_EX1704_MB-EM302.gsf.mb121.gz 26.87MB SAIC Generic Sensor Format (GSF)
0520_20170418_155124_EX1704_MB-EM302.gsf.mb121.gz 20.93MB SAIC Generic Sensor Format (GSF)
0521_20170418_161644_EX1704_MB-EM302.gsf.mb121.gz 20.20MB SAIC Generic Sensor Format (GSF)
0522_20170418_163726_EX1704_MB-EM302.gsf.mb121.gz 28.48MB SAIC Generic Sensor Format (GSF)
0523_20170418_173731_EX1704_MB-EM302.gsf.mb121.gz 30.80MB SAIC Generic Sensor Format (GSF)
0524_20170418_181410_EX1704_MB-EM302.gsf.mb121.gz 26.44MB SAIC Generic Sensor Format (GSF)
0525_20170418_191413_EX1704_MB-EM302.gsf.mb121.gz 13.08MB SAIC Generic Sensor Format (GSF)
0526_20170418_192350_EX1704_MB-EM302.gsf.mb121.gz 4.77MB SAIC Generic Sensor Format (GSF)
0527_20170418_192557_EX1704_MB-EM302.gsf.mb121.gz 5.69MB SAIC Generic Sensor Format (GSF)
0528_20170418_194153_EX1704_MB-EM302.gsf.mb121.gz 12.73MB SAIC Generic Sensor Format (GSF)
0529_20170418_194338_EX1704_MB-EM302.gsf.mb121.gz 20.54MB SAIC Generic Sensor Format (GSF)
0530_20170418_204338_EX1704_MB-EM302.gsf.mb121.gz 12.47MB SAIC Generic Sensor Format (GSF)
0531_20170418_205106_EX1704_MB-EM302.gsf.mb121.gz 11.62MB SAIC Generic Sensor Format (GSF)
0532_20170418_205342_EX1704_MB-EM302.gsf.mb121.gz 29.15MB SAIC Generic Sensor Format (GSF)
0533_20170418_215336_EX1704_MB-EM302.gsf.mb121.gz 38.51MB SAIC Generic Sensor Format (GSF)
0534_20170418_225337_EX1704_MB-EM302.gsf.mb121.gz 30.73MB SAIC Generic Sensor Format (GSF)
0535_20170418_235340_EX1704_MB-EM302.gsf.mb121.gz 15.20MB SAIC Generic Sensor Format (GSF)
0536_20170419_000544_EX1704_MB-EM302.gsf.mb121.gz 5.56MB SAIC Generic Sensor Format (GSF)
0537_20170419_001617_EX1704_MB-EM302.gsf.mb121.gz 11.76MB SAIC Generic Sensor Format (GSF)
0538_20170419_001743_EX1704_MB-EM302.gsf.mb121.gz 23.40MB SAIC Generic Sensor Format (GSF)
0539_20170419_011739_EX1704_MB-EM302.gsf.mb121.gz 17.68MB SAIC Generic Sensor Format (GSF)
0540_20170419_014104_EX1704_MB-EM302.gsf.mb121.gz 11.05MB SAIC Generic Sensor Format (GSF)
0541_20170419_014430_EX1704_MB-EM302.gsf.mb121.gz 22.42MB SAIC Generic Sensor Format (GSF)
0542_20170419_022308_EX1704_MB-EM302.gsf.mb121.gz 29.00MB SAIC Generic Sensor Format (GSF)
0543_20170419_032310_EX1704_MB-EM302.gsf.mb121.gz 18.90MB SAIC Generic Sensor Format (GSF)
0544_20170419_034858_EX1704_MB-EM302.gsf.mb121.gz 16.01MB SAIC Generic Sensor Format (GSF)
0545_20170419_035603_EX1704_MB-EM302.gsf.mb121.gz 29.96MB SAIC Generic Sensor Format (GSF)
0546_20170419_045602_EX1704_MB-EM302.gsf.mb121.gz 38.46MB SAIC Generic Sensor Format (GSF)
0547_20170419_055601_EX1704_MB-EM302.gsf.mb121.gz 38.48MB SAIC Generic Sensor Format (GSF)
0548_20170419_065607_EX1704_MB-EM302.gsf.mb121.gz 37.78MB SAIC Generic Sensor Format (GSF)
0549_20170419_075603_EX1704_MB-EM302.gsf.mb121.gz 30.93MB SAIC Generic Sensor Format (GSF)
0550_20170419_085254_EX1704_MB-EM302.gsf.mb121.gz 24.55MB SAIC Generic Sensor Format (GSF)
0551_20170419_091118_EX1704_MB-EM302.gsf.mb121.gz 26.82MB SAIC Generic Sensor Format (GSF)
0552_20170419_101115_EX1704_MB-EM302.gsf.mb121.gz 20.13MB SAIC Generic Sensor Format (GSF)
0553_20170419_103506_EX1704_MB-EM302.gsf.mb121.gz 19.19MB SAIC Generic Sensor Format (GSF)
0554_20170419_105304_EX1704_MB-EM302.gsf.mb121.gz 26.35MB SAIC Generic Sensor Format (GSF)
0555_20170419_115311_EX1704_MB-EM302.gsf.mb121.gz 26.91MB SAIC Generic Sensor Format (GSF)
0556_20170419_121741_EX1704_MB-EM302.gsf.mb121.gz 32.54MB SAIC Generic Sensor Format (GSF)
0557_20170419_131732_EX1704_MB-EM302.gsf.mb121.gz 38.32MB SAIC Generic Sensor Format (GSF)
0558_20170419_141736_EX1704_MB-EM302.gsf.mb121.gz 38.26MB SAIC Generic Sensor Format (GSF)
0559_20170419_151741_EX1704_MB-EM302.gsf.mb121.gz 31.83MB SAIC Generic Sensor Format (GSF)
0560_20170419_161737_EX1704_MB-EM302.gsf.mb121.gz 21.51MB SAIC Generic Sensor Format (GSF)
0561_20170419_163649_EX1704_MB-EM302.gsf.mb121.gz 24.75MB SAIC Generic Sensor Format (GSF)
0562_20170419_171116_EX1704_MB-EM302.gsf.mb121.gz 39.68MB SAIC Generic Sensor Format (GSF)
0563_20170419_181116_EX1704_MB-EM302.gsf.mb121.gz 36.27MB SAIC Generic Sensor Format (GSF)
0564_20170419_191115_EX1704_MB-EM302.gsf.mb121.gz 24.48MB SAIC Generic Sensor Format (GSF)
0565_20170419_191903_EX1704_MB-EM302.gsf.mb121.gz 51.23MB SAIC Generic Sensor Format (GSF)
0566_20170419_201903_EX1704_MB-EM302.gsf.mb121.gz 57.61MB SAIC Generic Sensor Format (GSF)
0567_20170419_211906_EX1704_MB-EM302.gsf.mb121.gz 45.89MB SAIC Generic Sensor Format (GSF)
0568_20170419_221909_EX1704_MB-EM302.gsf.mb121.gz 30.87MB SAIC Generic Sensor Format (GSF)
0569_20170419_231518_EX1704_MB-EM302.gsf.mb121.gz 14.25MB SAIC Generic Sensor Format (GSF)
0570_20170419_231712_EX1704_MB-EM302.gsf.mb121.gz 19.55MB SAIC Generic Sensor Format (GSF)
0571_20170419_234237_EX1704_MB-EM302.gsf.mb121.gz 14.86MB SAIC Generic Sensor Format (GSF)
0572_20170419_235637_EX1704_MB-EM302.gsf.mb121.gz 10.86MB SAIC Generic Sensor Format (GSF)
0573_20170419_235951_EX1704_MB-EM302.gsf.mb121.gz 38.60MB SAIC Generic Sensor Format (GSF)
0574_20170420_002502_EX1704_MB-EM302.gsf.mb121.gz 47.49MB SAIC Generic Sensor Format (GSF)
0575_20170420_011825_EX1704_MB-EM302.gsf.mb121.gz 52.34MB SAIC Generic Sensor Format (GSF)
0576_20170420_021404_EX1704_MB-EM302.gsf.mb121.gz 42.72MB SAIC Generic Sensor Format (GSF)
0577_20170420_025036_EX1704_MB-EM302.gsf.mb121.gz 52.82MB SAIC Generic Sensor Format (GSF)
0578_20170420_035037_EX1704_MB-EM302.gsf.mb121.gz 48.19MB SAIC Generic Sensor Format (GSF)
0579_20170420_044455_EX1704_MB-EM302.gsf.mb121.gz 32.45MB SAIC Generic Sensor Format (GSF)
0580_20170420_054453_EX1704_MB-EM302.gsf.mb121.gz 16.38MB SAIC Generic Sensor Format (GSF)
0581_20170420_055709_EX1704_MB-EM302.gsf.mb121.gz 17.00MB SAIC Generic Sensor Format (GSF)
0582_20170420_061227_EX1704_MB-EM302.gsf.mb121.gz 26.09MB SAIC Generic Sensor Format (GSF)
0583_20170420_071227_EX1704_MB-EM302.gsf.mb121.gz 16.02MB SAIC Generic Sensor Format (GSF)
0584_20170420_072247_EX1704_MB-EM302.gsf.mb121.gz 20.71MB SAIC Generic Sensor Format (GSF)
0585_20170420_073834_EX1704_MB-EM302.gsf.mb121.gz 34.14MB SAIC Generic Sensor Format (GSF)
0586_20170420_083834_EX1704_MB-EM302.gsf.mb121.gz 16.51MB SAIC Generic Sensor Format (GSF)
0587_20170420_084920_EX1704_MB-EM302.gsf.mb121.gz 18.33MB SAIC Generic Sensor Format (GSF)
0588_20170420_090800_EX1704_MB-EM302.gsf.mb121.gz 37.68MB SAIC Generic Sensor Format (GSF)
0589_20170420_100802_EX1704_MB-EM302.gsf.mb121.gz 19.14MB SAIC Generic Sensor Format (GSF)
0590_20170420_101832_EX1704_MB-EM302.gsf.mb121.gz 22.37MB SAIC Generic Sensor Format (GSF)
0591_20170420_103505_EX1704_MB-EM302.gsf.mb121.gz 41.76MB SAIC Generic Sensor Format (GSF)
0592_20170420_113505_EX1704_MB-EM302.gsf.mb121.gz 22.24MB SAIC Generic Sensor Format (GSF)
0593_20170420_114246_EX1704_MB-EM302.gsf.mb121.gz 39.72MB SAIC Generic Sensor Format (GSF)
0594_20170420_124249_EX1704_MB-EM302.gsf.mb121.gz 30.76MB SAIC Generic Sensor Format (GSF)
0595_20170420_125846_EX1704_MB-EM302.gsf.mb121.gz 55.31MB SAIC Generic Sensor Format (GSF)
0596_20170420_135846_EX1704_MB-EM302.gsf.mb121.gz 58.42MB SAIC Generic Sensor Format (GSF)
0597_20170420_145849_EX1704_MB-EM302.gsf.mb121.gz 49.53MB SAIC Generic Sensor Format (GSF)
0598_20170420_155844_EX1704_MB-EM302.gsf.mb121.gz 19.43MB SAIC Generic Sensor Format (GSF)
0599_20170420_161022_EX1704_MB-EM302.gsf.mb121.gz 11.33MB SAIC Generic Sensor Format (GSF)

Products: 53

Files File Size Description
EX1704-AmSamoa-bathymetry.jpg.gz 510.8KB JPEG survey image
EX1704-AmSamoa-bottom-backscatter.jpg.gz 0.55MB JPEG survey image
EX1704-AmSamoa-slope.jpg.gz 0.57MB JPEG survey image
EX1704-Overall.jpg.gz 0.82MB JPEG survey image
EX1704-RoseAtoll-bathymetry.jpg.gz 466.0KB JPEG survey image
EX1704-RoseAtoll-bottom-backscatter.jpg.gz 0.52MB JPEG survey image
EX1704-RoseAtoll-slope.jpg.gz 484.7KB JPEG survey image
EX1704_EasternSeamount1_backscatter.jpg.gz 0.55MB JPEG survey image
EX1704_EasternSeamount1_bathymetry.jpg.gz 455.9KB JPEG survey image
EX1704_EasternSeamount1_slope.jpg.gz 0.55MB JPEG survey image
EX1704_EasternSeamount2_backscatter.jpg.gz 480.0KB JPEG survey image
EX1704_EasternSeamount2_bathymetry.jpg.gz 435.4KB JPEG survey image
EX1704_EasternSeamount2_slope.jpg.gz 491.4KB JPEG survey image
EX1704_MB_FNL_EasternSeamount1_WGS84.scene.gz 12.28MB Fledermaus Scene file
EX1704_MB_FNL_EasternSeamount2_WGS84.scene.gz 7.09MB Fledermaus Scene file
EX1704_MB_FNL_RoseAtoll_WGS84.scene.gz 131.06MB Fledermaus Scene file
EX1704_MB_FNL_SamoaNorth_WGS84.scene.gz 15.83MB Fledermaus Scene file
EX1704_MB_FNL_SamoaSouth_WGS84.scene.gz 11.86MB Fledermaus Scene file
EX1704_MB_FNL_Tau_WGS84.scene.gz 96.20MB Fledermaus Scene file
EX1704_MB_FNL_WGS84_100M_All.asc.gz 67.33MB ESRI Arc ASCII
EX1704_MB_FNL_WGS84_100M_All.kmz.gz 11.14MB Compressed Keyhole Markup Language file
EX1704_MB_FNL_WGS84_100M_All.sd.gz 109.20MB Fledermaus surface
EX1704_MB_FNL_WGS84_100M_All.tif.gz 13.58MB GeoTIFF survey image
EX1704_MB_FNL_WGS84_100M_All.xyz.gz 111.27MB xyz grid file provided by the originator
EX1704_MB_FNL_WGS84_25M_SamoanClipper.asc.gz 3.54MB ESRI Arc ASCII
EX1704_MB_FNL_WGS84_25M_SamoanClipper.kmz.gz 1.37MB Compressed Keyhole Markup Language file
EX1704_MB_FNL_WGS84_25M_SamoanClipper.sd.gz 3.50MB Fledermaus surface
EX1704_MB_FNL_WGS84_25M_SamoanClipper.tif.gz 1.47MB GeoTIFF survey image
EX1704_MB_FNL_WGS84_25M_SamoanClipper.xyz.gz 12.58MB xyz grid file provided by the originator
EX1704_MB_FNL_WGS84_35M_SamoaSouth.asc.gz 11.87MB ESRI Arc ASCII
EX1704_MB_FNL_WGS84_35M_SamoaSouth.kmz.gz 3.51MB Compressed Keyhole Markup Language file
EX1704_MB_FNL_WGS84_35M_SamoaSouth.sd.gz 13.54MB Fledermaus surface
EX1704_MB_FNL_WGS84_35M_SamoaSouth.tif.gz 3.85MB GeoTIFF survey image
EX1704_MB_FNL_WGS84_35M_SamoaSouth.xyz.gz 36.59MB xyz grid file provided by the originator
EX1704_MB_FNL_WGS84_50M_SamoaNorth.asc.gz 6.21MB ESRI Arc ASCII
EX1704_MB_FNL_WGS84_50M_SamoaNorth.kmz.gz 2.03MB Compressed Keyhole Markup Language file
EX1704_MB_FNL_WGS84_50M_SamoaNorth.sd.gz 7.43MB Fledermaus surface
EX1704_MB_FNL_WGS84_50M_SamoaNorth.tif.gz 2.28MB GeoTIFF survey image
EX1704_MB_FNL_WGS84_50M_SamoaNorth.xyz.gz 18.17MB xyz grid file provided by the originator
EX1704_MB_FNL_WGS84_60M_AmericanSamoa.asc.gz 166.29MB ESRI Arc ASCII
EX1704_MB_FNL_WGS84_60M_AmericanSamoa.kmz.gz 26.95MB Compressed Keyhole Markup Language file
EX1704_MB_FNL_WGS84_60M_AmericanSamoa.sd.gz 263.23MB Fledermaus surface
EX1704_MB_FNL_WGS84_60M_AmericanSamoa.tif.gz 32.54MB GeoTIFF survey image
EX1704_MB_FNL_WGS84_60M_AmericanSamoa.xyz.gz 271.75MB xyz grid file provided by the originator
EX1704_SamoaNorth_backscatter.jpg.gz 0.53MB JPEG survey image
EX1704_SamoaNorth_bathymetry.jpg.gz 0.50MB JPEG survey image
EX1704_SamoaNorth_slope.jpg.gz 0.53MB JPEG survey image
EX1704_SamoaSouth_backscatter.jpg.gz 0.52MB JPEG survey image
EX1704_SamoaSouth_bathymetry.jpg.gz 446.9KB JPEG survey image
EX1704_SamoaSouth_slope.jpg.gz 497.6KB JPEG survey image
EX1704_Tau_landslide_backscatter.jpg.gz 0.91MB JPEG survey image
EX1704_Tau_landslide_bathymetry.jpg.gz 0.57MB JPEG survey image
EX1704_Tau_landslide_slope.jpg.gz 0.80MB JPEG survey image

Metadata Files: 7

Files File Size Description
EX1704_COLLECTION_UNRESOLVED.xml 13.1KB XML metadata file
EX1704_Multibeam_COLLECTION_UNRESOLVED.xml 21.0KB XML metadata file
EX1704_Profile_COLLECTION_UNRESOLVED.xml 16.2KB XML metadata file
mb_bag_info.tar.gz 71.4KB Additional cruise information
v1_file_metadata.tar.gz 170.3KB File level metadata
wcp_bag_info.tar.gz 5.2KB Additional cruise information
v2_file_metadata.tar.gz 195.8KB File level metadata

Ancillary Files: 3

Files File Size Description
asvp.tar.gz 252.3KB Sound Speed Profiles (SSP or SVP)
support.tar.gz 443.9KB Supporting data
xbt.tar.gz 1.29MB Expendable Bathythermograph (XBT) data

Water Column Sonar Data

Water Column Sonar Data Available: WCSD Map Viewer